GFSCGP_500_rhum_054.txt.gz
RH
64 81 83 77 90 89 97 75 96 79 68 84 83 46 34 35 43 41 21 36 14 14 12 14 15 17 18 17 17 22 26 35 50 30 39 34 36 19 20 22 24 25 27 28
54 67 92 97 97 81 79 82 77 62 67 93 79 87 42 33 30 44 55 14 20 11 10 9 13 15 19 22 20 22 29 42 42 30 25 18 17 20 21 24 26 28 31 33
73 73 93 100 87 68 70 60 64 60 70 40 90 61 19 31 54 58 49 26 39 32 14 11 11 14 18 23 21 27 48 46 34 21 17 17 18 21 24 26 27 27 25 24
69 71 72 96 80 89 87 78 73 72 80 71 78 54 51 36 48 70 76 49 35 29 21 15 15 13 15 30 25 41 40 43 45 20 18 18 22 24 27 28 26 24 21 20
72 57 53 77 74 98 63 66 72 75 79 34 36 66 81 67 56 53 78 65 29 32 41 23 25 23 22 21 23 37 32 39 36 20 21 24 25 28 23 19 18 18 18 20
74 91 81 94 93 84 65 86 65 66 77 56 97 77 59 97 84 71 76 42 25 48 52 18 24 19 22 23 19 20 34 26 30 25 26 23 20 19 18 18 18 18 18 19
70 84 80 77 81 86 69 71 86 73 55 42 54 54 49 65 56 38 73 34 41 32 24 19 18 16 31 20 24 39 24 23 19 17 17 18 18 18 18 18 18 18 19 21
87 63 86 71 73 68 64 78 44 47 60 56 70 73 84 79 75 52 38 27 20 16 16 17 17 17 50 24 40 27 16 18 20 18 18 19 17 13 12 12 14 17 29 50
60 55 67 75 61 53 51 50 53 55 52 59 99 83 59 50 32 50 55 28 18 18 18 18 18 31 33 26 29 18 21 21 18 18 17 14 14 12 13 15 34 56 65 100
95 70 79 99 91 79 64 40 62 84 69 42 33 50 45 32 55 86 74 58 20 18 19 19 19 22 18 19 18 18 21 19 16 15 16 15 20 33 41 70 97 98 78 95
86 97 92 69 71 84 58 30 42 36 29 24 18 25 26 50 57 82 66 60 43 19 20 19 19 18 18 17 17 16 15 14 15 23 34 52 82 91 96 76 79 94 95 96
94 92 93 75 86 79 91 33 27 43 70 54 21 17 28 54 90 77 63 41 43 29 27 26 22 17 16 17 18 17 15 26 59 88 83 99 97 82 76 66 66 94 91 57
100 95 88 68 72 80 48 38 19 26 25 21 19 11 16 22 28 39 47 29 23 29 22 24 23 19 16 15 16 26 42 46 82 98 98 93 88 75 75 72 70 57 62 64
94 97 92 52 66 91 49 35 52 37 32 20 23 14 13 17 21 34 30 24 19 20 20 21 17 22 30 18 30 37 70 72 90 93 91 75 60 76 38 46 59 64 50 60
100 81 39 22 18 25 23 15 12 14 25 33 35 29 38 30 26 27 30 25 20 21 25 23 23 36 33 46 72 81 76 82 80 87 73 65 30 27 44 55 50 61 88 97
60 41 29 20 19 17 12 10 8 9 17 16 18 20 29 34 35 34 34 33 32 32 29 20 23 51 80 54 52 76 78 81 76 50 29 28 41 50 53 74 93 93 96 100
32 29 23 15 10 9 9 10 13 12 12 10 16 18 21 27 27 34 37 38 39 37 34 29 25 24 22 16 67 66 61 19 24 31 42 52 55 76 95 100 98 100 100 100
26 20 12 10 11 10 12 14 14 12 14 15 16 21 23 27 32 35 33 30 27 24 25 24 20 14 13 12 12 12 15 24 38 57 52 58 80 93 100 100 100 100 100 100
30 22 13 12 11 15 21 27 28 31 30 26 25 27 29 32 31 28 25 25 28 19 15 14 14 12 9 8 12 21 32 41 45 55 78 93 100 100 100 100 100 91 93 100
32 32 34 24 35 54 40 37 34 32 30 32 37 40 39 34 27 28 28 16 14 15 15 12 9 9 14 22 30 40 44 43 56 78 93 96 97 100 91 75 66 100 100 83
48 46 14 9 11 21 30 36 37 34 31 40 44 42 41 36 22 14 13 14 14 11 8 8 10 16 24 36 44 40 40 65 90 94 89 90 84 74 42 17 60 73 77 22
42 19 14 9 10 18 30 32 32 43 49 47 37 23 14 11 12 13 13 10 9 9 9 11 14 26 41 42 41 61 75 84 85 84 82 72 45 11 5 4 4 6 9 16
36 20 11 10 10 16 26 30 30 30 22 16 14 14 12 12 12 11 9 8 9 10 12 16 31 42 43 50 64 75 84 85 84 76 54 26 6 5 4 4 6 10 20 35
24 16 10 9 9 12 13 14 17 15 15 15 13 12 12 13 13 10 10 12 13 13 16 33 43 47 55 65 74 80 81 77 65 42 20 8 4 4 5 6 8 21 36 37
22 19 16 15 12 15 14 16 17 16 14 13 13 14 16 15 14 14 15 15 15 22 37 44 49 55 66 74 80 78 73 59 36 16 6 5 5 5 6 10 19 33 38 60
22 24 20 22 20 19 17 16 14 14 14 14 15 18 19 20 20 18 17 20 31 44 51 54 58 70 82 85 82 74 54 32 14 6 6 6 6 7 10 20 34 52 82 85

GFSCGP_500_rhum_057.txt.gz
RH
75 90 70 51 75 100 96 100 95 90 100 97 99 90 52 47 43 45 43 32 23 23 23 20 18 16 17 26 26 14 16 22 43 50 33 35 28 27 16 18 20 22 24 24
67 89 86 91 81 93 71 85 70 55 82 86 72 70 27 35 46 38 36 25 22 23 18 17 15 14 13 13 17 36 29 39 38 44 25 23 16 17 19 20 22 22 22 19
66 73 87 81 84 91 78 90 81 66 44 58 51 49 24 23 52 36 42 21 31 41 39 24 21 23 20 14 15 21 41 37 48 37 26 19 18 20 20 21 20 19 18 19
54 68 84 81 74 71 76 69 70 61 52 48 30 39 40 21 30 38 67 63 51 39 49 25 31 21 20 20 31 29 55 63 56 38 43 21 20 21 20 19 17 17 18 18
41 51 57 72 81 82 65 60 70 62 56 56 44 23 39 23 32 35 44 68 47 36 34 32 24 33 44 60 59 29 76 56 73 62 58 35 22 18 17 17 17 17 18 17
39 60 64 58 71 75 64 50 50 58 57 60 48 43 51 46 51 57 59 59 43 28 49 50 27 29 19 52 45 32 59 40 57 66 58 32 22 17 17 17 17 16 15 14
44 88 86 67 66 79 70 52 41 39 42 46 65 47 64 63 72 44 49 34 21 28 52 18 22 17 17 32 47 67 60 62 58 45 28 26 19 18 17 15 15 14 19 29
43 81 69 88 86 99 88 72 51 38 33 35 52 41 48 72 75 52 28 24 31 16 18 16 17 17 23 44 37 78 74 78 53 36 24 19 18 17 15 19 22 29 46 63
48 59 62 70 98 100 86 76 60 44 36 32 62 51 58 84 79 63 49 23 18 18 18 16 17 18 24 34 38 66 63 48 23 29 26 16 22 20 26 45 47 49 64 64
47 61 66 79 84 96 89 86 61 46 53 58 51 56 66 73 53 36 24 59 27 20 19 18 18 18 19 19 25 36 20 18 18 20 23 15 18 36 45 41 68 61 99 84
26 34 58 65 95 100 100 98 88 51 67 40 46 39 31 24 24 24 34 77 58 46 32 20 21 21 24 24 18 19 20 19 22 18 15 37 50 71 60 74 87 87 74 96
29 29 30 42 91 90 83 68 100 34 37 30 23 19 20 20 21 18 34 62 74 74 67 39 27 25 26 22 25 26 24 23 27 33 42 70 69 100 96 100 81 68 64 55
32 32 32 40 57 54 67 93 89 67 24 20 26 22 20 16 18 18 16 20 29 54 46 59 40 30 35 31 33 41 48 37 45 58 66 92 97 92 97 96 100 75 55 51
43 41 34 52 75 99 100 94 76 58 48 26 21 18 18 22 11 11 12 13 14 23 26 25 28 31 31 36 50 50 66 44 57 92 95 94 97 100 97 69 59 47 51 74
31 26 57 50 69 71 90 97 99 62 26 13 12 10 18 20 21 20 16 20 22 28 30 31 30 37 42 38 58 65 77 95 100 95 96 94 86 73 64 46 54 65 75 88
61 30 56 39 41 35 26 34 31 29 12 9 10 8 10 16 22 26 30 29 33 36 35 32 29 28 28 49 50 22 53 61 80 71 71 35 53 78 51 60 65 66 82 89
42 40 34 23 24 25 27 20 21 14 12 12 11 10 8 9 17 18 23 28 36 36 31 26 22 20 44 18 9 10 10 11 30 54 32 42 47 45 44 53 75 84 88 84
51 84 43 19 23 25 16 12 11 13 14 14 13 11 13 16 24 24 23 25 26 27 26 24 24 17 10 10 11 10 10 11 15 29 48 44 38 46 70 81 83 84 86 100
38 34 54 17 19 17 12 10 14 16 19 22 26 28 30 30 30 29 32 32 29 26 26 19 10 10 11 10 8 9 13 21 36 43 40 43 63 74 78 84 83 76 64 34
39 33 62 23 25 17 12 16 26 49 36 33 34 38 45 45 42 37 33 32 34 23 11 11 11 11 9 9 10 12 19 34 41 44 57 67 76 84 85 74 62 36 10 5
52 66 65 51 37 28 35 11 23 35 33 39 40 39 37 36 36 41 38 22 14 14 14 12 10 9 11 13 15 27 38 44 50 55 68 82 84 78 65 49 22 7 5 5
52 60 66 90 62 44 18 10 11 25 36 37 36 35 40 41 32 19 17 16 16 14 11 10 12 13 14 20 31 41 48 55 63 75 84 83 76 62 42 20 7 6 6 6
70 55 59 81 69 24 16 13 18 28 35 38 40 36 24 19 20 17 17 17 15 13 14 16 16 16 23 32 45 52 57 66 80 87 83 78 66 43 24 13 6 6 7 8
95 72 67 77 50 23 15 13 12 16 24 22 18 16 19 18 16 16 18 18 19 23 22 20 20 26 37 49 56 56 61 82 89 86 82 68 49 28 12 7 7 8 9 11
100 100 68 65 42 23 22 18 15 14 14 16 17 16 16 16 16 18 21 26 34 35 29 26 29 42 55 57 54 59 84 91 91 86 68 48 27 13 8 8 9 10 11 17
94 71 86 67 47 27 28 26 24 22 19 18 17 17 17 18 19 21 31 49 52 40 32 37 54 61 54 48 56 85 91 93 88 67 44 21 11 9 9 9 10 12 14 20

GFSCGP_500_rhum_060.txt.gz
RH
56 51 42 44 72 86 87 97 98 99 96 89 80 69 79 62 58 91 48 34 26 24 18 18 16 23 30 33 27 28 23 29 32 44 43 30 32 44 32 20 18 21 22 21
53 58 50 68 90 83 95 97 100 96 83 98 72 46 45 59 58 64 46 38 26 25 23 21 19 16 19 33 27 32 32 27 36 39 50 32 30 24 22 19 20 21 19 16
37 47 49 47 66 81 72 87 77 53 70 80 70 48 32 48 37 42 35 30 30 26 21 20 18 16 17 22 28 27 31 47 42 48 42 27 21 26 20 20 18 16 16 16
31 45 48 49 56 67 66 72 68 68 55 46 53 72 29 20 46 44 77 67 84 87 75 36 30 22 16 15 13 12 18 42 43 48 33 34 35 30 23 18 16 16 16 17
26 48 54 71 60 58 69 62 60 64 78 64 57 37 46 34 58 34 77 57 70 60 65 60 58 47 39 57 53 42 42 49 68 61 52 59 81 76 52 34 18 17 18 16
21 41 45 56 61 62 58 55 54 65 60 61 65 37 38 51 56 71 61 50 61 33 43 50 45 44 41 54 83 70 47 59 58 51 59 86 83 66 61 34 18 18 17 17
23 32 31 34 53 60 59 72 57 48 47 48 57 46 43 69 56 64 53 57 65 28 27 45 53 32 37 32 60 67 75 76 76 71 89 96 57 55 54 20 20 22 22 31
23 35 29 48 66 67 59 69 92 70 53 47 36 31 38 45 46 62 50 38 31 28 33 57 25 23 17 46 50 52 52 96 97 96 97 66 42 43 32 29 23 25 40 53
20 32 42 52 53 60 76 83 83 70 53 41 38 30 32 49 49 64 59 65 31 25 18 17 17 18 17 20 30 34 31 92 58 38 34 34 41 40 33 39 45 49 75 94
21 34 62 42 48 48 68 74 81 85 68 47 52 40 37 57 69 69 65 45 24 20 16 16 18 19 19 18 18 19 23 39 20 19 24 37 32 32 50 63 69 97 100 100
20 24 48 56 42 71 81 63 75 66 69 73 46 37 53 45 37 41 38 33 20 41 38 20 19 20 20 22 25 26 28 34 28 24 30 29 42 60 54 78 93 89 99 77
16 23 24 29 45 64 71 55 70 70 53 73 49 35 35 41 24 18 19 22 32 58 77 52 40 47 31 43 32 27 28 50 43 48 62 63 71 81 84 85 92 99 88 93
20 16 22 27 32 32 44 62 56 56 50 50 50 25 24 34 28 25 22 27 31 24 57 76 71 74 69 45 29 32 60 67 74 67 91 89 77 83 99 92 94 93 93 79
20 19 22 24 36 62 67 54 51 55 52 46 45 53 39 24 18 24 22 22 15 14 14 22 34 37 35 32 38 56 60 71 76 76 65 71 62 86 93 99 77 51 41 58
26 26 32 34 42 56 85 86 71 52 62 45 50 18 13 9 8 16 22 23 27 26 26 36 41 36 32 44 49 59 51 65 66 49 32 44 37 62 90 95 45 71 83 49
38 36 45 49 40 34 66 48 48 56 71 32 18 10 9 10 12 10 19 22 29 29 32 34 33 32 31 41 38 41 49 19 12 11 9 10 25 36 45 47 44 46 45 68
53 52 47 57 43 35 34 36 44 27 17 17 9 8 11 13 13 10 10 20 21 24 27 27 29 30 25 19 16 11 10 10 8 8 8 11 16 28 40 43 43 53 71 85
36 46 57 53 55 36 13 16 15 19 15 9 8 11 15 15 15 14 16 17 23 22 22 26 28 26 23 16 11 12 11 9 9 10 12 15 29 40 44 50 77 70 80 82
36 65 59 48 36 52 15 11 20 16 10 8 11 27 32 32 32 29 28 27 26 26 27 30 29 25 13 14 13 10 10 10 12 12 19 32 42 48 56 61 68 80 83 76
20 50 79 44 38 28 43 21 19 17 9 20 46 40 31 32 32 29 31 35 36 35 33 30 15 14 13 11 10 11 12 13 15 20 33 45 51 56 59 70 86 87 78 62
30 38 37 45 42 34 44 38 31 26 30 13 11 20 30 30 31 29 34 38 40 34 16 15 14 13 12 12 14 16 17 19 24 34 48 53 56 60 80 91 89 82 67 48
35 45 42 48 52 47 64 79 58 44 20 11 11 16 30 30 30 36 43 32 18 16 15 16 15 16 20 23 24 23 24 28 38 53 55 50 55 82 90 90 85 69 48 31
42 40 52 57 50 53 64 71 63 35 15 10 11 23 33 34 34 25 16 17 15 15 18 20 26 29 34 38 34 30 32 43 53 49 46 62 90 92 91 87 71 49 29 21
35 50 84 82 72 67 60 69 84 34 14 10 11 14 20 19 16 17 16 16 16 20 23 26 34 47 51 46 40 38 46 52 46 49 69 90 93 95 92 76 56 40 23 14
82 89 84 87 88 80 90 89 78 37 21 16 14 15 18 19 18 18 18 19 20 21 22 31 48 56 53 47 45 51 54 45 54 83 92 91 92 90 77 53 30 16 11 11
90 80 88 87 90 99 95 77 65 34 28 27 24 21 20 21 21 22 22 22 23 24 30 46 55 56 53 53 55 53 47 64 90 91 90 91 89 75 53 31 14 11 12 13

GFSCGP_500_rhum_063.txt.gz
RH
31 47 54 36 40 45 58 85 98 86 89 94 90 95 90 87 73 64 76 53 31 27 26 29 31 34 35 36 40 54 51 32 35 39 42 37 27 28 57 56 46 38 19 20
29 45 57 52 50 59 66 77 95 82 98 81 78 92 95 86 65 45 33 30 33 31 27 26 33 38 38 34 31 33 29 35 34 43 46 40 30 33 39 40 43 54 20 21
20 35 46 49 50 58 62 74 64 72 90 97 88 63 72 64 47 49 35 30 26 25 22 22 18 22 31 39 33 30 34 34 28 39 40 45 28 24 23 49 46 21 21 17
16 27 38 40 41 47 52 66 66 62 57 80 83 77 48 69 80 67 49 36 53 52 37 23 16 14 14 15 18 23 23 24 37 47 45 47 27 32 40 50 35 35 25 17
20 21 39 41 46 46 47 62 66 70 80 68 59 45 56 33 56 87 100 96 86 69 50 44 30 15 14 14 14 17 25 35 50 81 82 52 57 62 66 85 82 59 35 16
20 21 48 44 51 59 64 56 51 50 60 70 71 62 52 46 68 77 64 93 83 72 86 60 46 33 29 38 36 44 61 65 48 81 60 76 63 74 92 92 66 58 29 25
19 18 30 44 47 41 49 61 55 49 53 61 64 47 55 52 59 66 68 66 69 69 67 38 39 40 34 43 48 61 77 74 70 82 93 78 69 82 96 83 61 58 82 30
15 17 19 30 41 41 42 52 60 61 62 58 52 44 40 40 44 47 65 59 62 66 76 41 35 39 48 79 79 86 85 59 63 85 98 98 98 76 58 55 62 82 52 42
13 19 19 27 42 38 49 57 62 54 50 53 44 42 41 43 42 64 77 77 80 49 31 36 33 56 35 22 21 44 49 39 36 70 92 82 60 31 51 58 69 59 73 75
12 15 19 21 36 45 50 52 51 52 50 47 41 40 44 50 53 65 67 73 72 49 31 22 20 19 19 19 19 23 20 21 24 31 49 50 57 53 60 66 88 96 94 91
10 12 22 24 31 63 58 52 53 61 50 48 43 38 41 46 52 44 45 60 61 50 34 42 22 20 20 20 20 23 27 26 27 32 47 66 68 72 90 99 94 94 74 86
13 12 16 25 26 39 56 55 61 68 68 58 42 31 35 40 46 36 28 20 17 16 18 19 70 66 48 45 54 48 58 42 32 50 71 81 84 89 99 99 93 90 84 98
15 12 14 19 23 24 28 32 43 69 62 42 36 26 41 27 29 42 42 27 20 16 13 17 28 57 73 72 72 74 59 35 37 77 82 96 100 100 86 80 97 84 100 100
14 14 12 15 25 39 42 46 52 56 43 54 40 48 42 39 30 30 19 14 21 21 27 23 13 18 24 44 60 49 41 48 62 79 75 85 89 80 71 81 92 56 92 99
15 15 16 19 23 27 31 38 39 50 54 55 44 49 43 23 14 10 7 7 8 14 22 25 22 20 28 31 40 49 54 69 62 60 62 52 44 16 14 11 16 33 38 90
20 24 24 25 29 31 31 26 28 48 53 54 55 53 47 18 9 8 10 11 11 10 20 23 26 28 33 36 39 51 45 45 27 18 21 11 9 8 10 10 11 20 41 47
24 28 31 26 40 40 22 22 33 40 44 50 34 18 17 8 8 11 14 14 11 10 9 18 23 26 28 28 31 29 26 18 11 11 9 8 10 11 11 13 17 27 38 46
28 44 34 30 36 24 24 29 22 33 24 20 19 15 10 9 12 23 27 27 27 24 22 20 24 25 26 31 31 28 14 12 11 9 10 12 13 14 16 20 27 43 50 56
50 66 59 42 28 26 18 26 40 28 11 17 17 13 10 10 26 31 24 26 28 27 27 29 31 33 33 31 18 14 14 11 11 13 16 18 19 21 24 31 44 52 55 53
52 77 60 48 27 9 30 36 32 45 12 46 37 24 17 14 18 20 24 27 27 28 35 38 36 35 22 15 16 14 13 16 20 24 27 29 27 28 35 42 47 46 48 71
60 49 42 37 34 13 20 35 37 44 43 36 37 34 25 10 10 14 27 28 28 32 36 36 18 16 16 17 16 19 22 25 33 42 40 36 35 39 46 46 46 56 83 91
83 65 48 55 50 16 31 53 54 62 67 64 50 31 16 10 9 16 28 32 34 36 20 16 15 15 18 19 21 24 31 39 49 48 45 43 44 48 44 46 71 88 87 85
95 96 86 92 51 38 43 48 54 54 84 70 52 27 13 9 9 12 23 29 21 15 17 16 16 17 19 21 27 37 46 51 52 51 51 50 49 46 54 82 88 86 78 75
91 99 98 98 68 62 73 76 98 82 62 61 61 35 16 11 11 14 16 16 16 16 16 17 18 20 22 27 35 43 49 55 57 57 56 51 50 65 86 89 85 87 85 80
50 83 93 97 94 83 96 89 93 90 59 51 57 45 20 18 16 18 20 19 18 19 19 20 23 25 28 37 43 53 60 64 63 60 56 59 77 91 92 89 93 92 88 72
46 47 70 96 100 96 83 91 89 91 83 86 61 53 29 28 27 25 24 23 23 23 24 27 30 33 39 49 58 66 71 71 67 65 73 88 91 90 90 94 98 94 73 34

GFSCGP_500_rhum_066.txt.gz
RH
13 27 33 54 44 45 46 62 84 89 68 88 100 100 100 91 71 76 70 71 57 33 23 32 39 54 58 63 65 63 61 61 65 63 64 71 75 69 40 26 44 75 80 79
12 27 37 44 46 49 57 67 68 69 83 71 88 88 93 87 80 72 62 46 32 26 35 30 33 45 51 50 57 61 59 49 45 45 46 50 46 35 28 47 78 62 63 55
12 16 36 43 43 55 55 58 64 70 77 89 86 85 93 79 63 57 38 31 28 25 25 27 36 38 36 33 33 31 33 33 36 37 42 49 46 47 32 38 60 78 80 26
11 14 28 38 35 42 56 56 58 50 50 92 77 96 67 76 52 48 35 28 32 28 20 21 21 19 20 31 37 34 28 24 26 30 35 37 39 46 30 36 62 72 43 43
14 16 20 32 33 38 49 52 56 60 71 63 62 77 99 50 82 68 59 80 39 48 52 25 16 15 15 15 16 14 16 20 17 20 27 52 53 51 42 36 59 72 80 87
11 15 16 28 35 46 52 58 55 51 59 72 64 64 100 96 55 78 67 66 76 69 61 62 50 28 32 19 15 21 25 40 66 67 59 71 82 78 68 71 82 100 98 88
12 13 17 27 35 39 46 54 56 50 46 66 48 47 67 50 43 59 66 84 82 76 74 75 67 54 28 28 25 33 45 47 58 82 74 81 78 64 81 95 90 98 92 75
10 10 15 20 38 48 55 52 57 59 51 41 45 46 69 40 41 46 62 66 72 70 72 86 83 58 35 36 37 48 67 67 73 53 63 64 100 92 98 97 90 64 62 71
13 12 14 16 26 36 44 47 56 56 49 49 45 46 45 38 34 35 39 59 74 76 81 45 68 67 50 40 54 56 32 53 60 45 36 34 84 55 96 87 96 72 84 94
15 13 12 14 19 24 36 46 57 56 59 49 51 51 62 41 34 36 36 50 85 83 73 53 28 37 31 24 23 22 22 33 29 24 24 28 29 52 74 89 95 89 97 98
14 12 14 13 12 20 28 46 68 74 64 57 49 51 53 58 39 38 43 58 65 69 66 52 55 46 30 23 22 22 21 22 26 32 35 37 33 48 74 80 91 97 99 99
17 14 13 14 13 22 39 47 63 60 62 60 58 44 48 44 47 40 32 38 31 31 35 38 42 64 83 66 57 60 61 58 52 49 47 42 34 64 90 97 98 96 92 70
20 17 15 14 14 15 18 24 35 47 56 41 40 29 34 51 51 44 26 28 31 25 17 14 14 16 24 81 97 93 89 87 90 81 68 45 39 64 74 84 98 91 64 56
29 22 18 16 22 25 18 20 30 43 50 39 31 41 55 58 64 36 22 32 27 16 10 10 12 17 18 16 31 55 75 76 56 45 53 59 68 68 63 70 54 45 51 88
24 16 15 17 23 22 18 15 20 25 30 40 34 48 62 61 64 49 32 19 10 8 9 9 8 15 18 20 18 16 19 30 42 51 71 73 64 39 32 26 11 10 10 12
23 30 19 20 21 20 20 14 18 20 26 24 39 30 49 57 54 36 14 9 10 12 13 13 11 10 19 22 27 45 59 75 58 57 51 49 23 16 13 10 12 13 14 17
26 26 25 21 22 25 21 17 28 34 25 22 30 45 42 25 18 11 8 10 14 17 19 18 14 13 13 22 26 30 40 42 36 35 26 14 13 10 12 15 17 19 21 24
41 35 33 28 28 27 19 26 29 28 23 22 33 33 23 19 12 7 7 10 29 30 26 30 30 30 28 27 30 32 38 40 37 21 15 13 12 16 20 25 29 33 32 32
44 43 44 40 29 31 27 21 34 45 50 23 24 17 15 14 12 9 11 22 28 24 25 26 26 30 35 38 39 40 39 32 16 15 14 16 22 26 36 40 41 40 40 42
52 57 60 61 52 32 24 31 40 41 24 42 58 27 17 16 14 19 14 10 10 18 25 23 24 29 35 38 40 25 16 16 16 17 22 24 32 42 43 46 47 47 47 48
70 75 73 79 66 48 30 35 36 33 36 38 39 41 27 26 28 26 17 9 10 18 30 31 32 37 37 22 16 15 16 18 19 20 22 28 34 39 46 51 53 53 52 48
82 86 77 78 78 62 42 41 50 42 42 51 58 53 56 44 40 22 12 9 10 19 31 35 37 29 18 17 16 16 18 19 20 23 28 32 37 47 54 59 59 56 55 64
95 92 92 79 71 72 66 63 57 42 49 56 52 58 73 65 46 22 12 10 11 18 27 28 19 17 17 16 17 18 19 21 24 28 31 40 49 60 66 66 64 66 76 87
99 100 95 96 85 81 76 91 72 57 59 64 80 63 46 61 60 41 18 14 14 15 16 18 18 17 18 19 20 22 24 30 35 38 46 56 64 72 75 77 80 85 87 84
87 98 96 81 88 99 98 98 93 82 70 87 88 87 86 57 60 53 27 22 23 23 21 21 21 23 23 24 27 34 38 39 44 58 68 74 79 84 82 81 82 80 81 83
69 88 92 95 97 96 92 91 98 94 94 94 87 84 77 79 95 65 36 29 29 28 28 30 32 35 40 44 46 49 53 63 70 77 83 85 86 84 81 79 79 88 89 83

GFSCGP_500_rhum_069.txt.gz
RH
12 10 16 90 93 47 59 100 100 100 90 62 99 96 100 87 73 82 93 95 67 36 84 55 65 70 67 62 50 67 94 75 72 52 58 65 80 97 100 100 100 80 73 82
13 10 14 36 36 48 43 96 100 94 80 64 95 100 96 70 69 64 55 38 45 25 26 32 40 47 48 46 42 36 36 39 40 44 54 66 73 70 62 47 41 46 59 79
14 13 12 29 33 39 49 80 97 77 80 84 86 100 92 46 49 58 36 28 25 24 17 17 21 23 24 29 29 27 26 32 32 35 43 50 53 52 48 44 36 38 78 66
15 12 11 22 30 36 67 83 55 47 50 97 60 96 93 98 42 42 37 24 18 17 17 18 17 16 18 25 34 36 35 32 29 29 28 27 29 34 38 45 42 34 64 80
19 14 10 13 29 34 36 40 50 53 53 71 98 77 99 100 96 85 49 49 47 23 26 29 21 15 14 14 16 18 23 25 24 25 21 19 20 33 43 46 47 32 55 68
16 12 8 12 22 31 32 43 47 45 46 100 99 62 96 98 95 98 99 37 53 56 65 74 72 67 62 40 27 18 18 20 24 43 65 70 52 50 57 77 63 38 48 70
18 12 9 9 22 30 38 43 92 74 99 89 80 50 72 100 46 52 37 47 60 62 66 71 70 72 77 69 32 29 28 36 61 55 46 79 73 73 78 96 89 80 89 97
21 16 12 10 17 32 36 46 99 95 98 96 68 48 96 60 40 46 46 49 59 62 64 66 58 68 66 71 63 44 46 51 52 57 82 69 59 42 41 91 67 78 98 98
20 17 14 9 15 23 62 35 91 93 81 70 76 94 66 41 37 34 36 44 45 58 68 69 63 46 36 40 48 36 40 38 28 30 42 43 39 23 24 26 27 61 70 96
21 30 20 12 13 15 25 45 49 42 95 95 94 94 95 84 42 33 33 33 36 50 83 84 71 46 27 27 26 22 21 20 20 21 24 25 22 27 33 39 33 55 89 94
24 22 56 14 10 13 17 28 42 100 100 100 100 95 98 72 50 46 39 38 44 56 83 84 70 63 57 36 24 22 22 21 21 21 21 24 32 48 58 51 41 58 61 86
23 21 59 17 14 20 86 25 50 82 95 74 76 94 99 72 70 42 34 41 44 47 61 71 70 62 52 60 71 57 40 44 47 49 56 63 80 77 60 53 47 47 76 74
31 28 24 44 19 11 11 33 98 96 100 94 78 60 96 69 46 49 49 52 42 32 36 29 23 20 20 24 40 70 85 88 86 87 96 98 91 88 85 63 59 60 70 51
37 32 25 20 28 37 19 18 39 85 67 19 32 92 100 98 99 100 91 88 46 21 24 22 12 8 9 14 18 18 30 68 93 94 86 73 52 49 52 63 78 76 45 26
43 34 32 28 53 100 72 20 17 17 23 33 50 100 93 100 100 86 96 92 45 30 18 8 8 10 11 11 10 15 21 25 26 26 32 44 70 84 86 93 72 47 21 15
51 42 38 26 26 87 88 30 14 19 36 24 27 55 96 93 88 50 47 48 41 16 8 9 11 14 16 14 12 13 22 26 36 56 83 100 97 89 77 62 27 20 14 13
51 45 46 34 27 40 42 17 14 15 20 23 24 80 100 99 82 44 49 45 20 8 9 12 19 23 24 23 22 19 34 59 72 86 71 78 64 54 35 16 13 14 20 26
60 55 56 43 35 30 29 23 22 18 22 30 24 21 34 64 37 21 18 13 8 8 9 29 32 26 28 30 30 32 30 29 32 33 32 33 34 22 16 15 19 25 33 43
80 80 67 57 42 37 37 28 23 29 36 32 27 40 49 53 16 18 16 12 10 9 11 27 22 25 25 26 27 31 38 42 45 45 44 34 19 18 19 26 29 35 38 40
99 90 93 69 53 43 44 40 36 39 38 39 47 84 49 22 13 11 11 16 15 16 14 10 10 21 26 27 30 35 40 44 48 30 20 20 20 23 26 25 27 29 33 40
95 99 94 95 84 58 55 46 41 55 45 53 47 58 37 35 32 28 20 15 22 26 18 10 10 14 28 34 36 42 45 34 20 18 18 21 23 21 23 28 30 34 48 58
96 94 92 94 87 86 71 64 81 62 53 50 49 37 34 32 38 39 49 42 36 33 16 10 9 13 25 33 37 33 22 19 18 18 20 21 22 26 31 36 46 56 66 76
100 96 100 98 90 84 94 98 96 91 68 68 78 49 33 40 45 46 59 62 57 42 21 11 10 14 21 21 17 17 18 18 19 20 22 24 31 38 44 51 64 75 81 82
94 100 90 99 98 100 91 80 88 95 90 92 80 54 43 49 62 64 65 58 59 56 47 21 14 15 17 20 20 20 21 23 24 26 33 41 47 52 60 70 85 85 81 79
94 98 92 92 89 99 94 96 100 96 86 94 96 71 67 68 72 65 72 84 66 68 63 29 24 24 24 26 28 31 35 42 48 52 53 57 67 83 93 98 88 83 86 82
95 96 98 96 100 91 100 97 94 98 97 98 98 82 76 79 83 81 84 91 84 97 97 50 31 29 31 39 52 68 85 87 78 71 76 93 97 96 95 81 81 84 78 77

GFSCGP_500_rhum_072.txt.gz
RH
53 23 10 10 58 52 65 70 99 92 86 69 69 83 51 73 79 54 53 80 49 67 74 80 77 72 74 76 90 98 96 97 90 79 52 45 39 42 51 59 73 91 94 86
58 25 11 9 65 35 39 35 68 80 89 67 82 96 85 51 40 27 38 28 52 20 33 50 49 46 50 45 32 32 36 54 47 29 27 24 25 30 35 44 52 49 49 44
70 25 12 10 22 29 33 39 84 99 97 76 74 93 94 68 69 36 28 24 16 15 13 15 17 19 20 22 23 27 27 27 28 26 26 27 30 30 37 44 48 49 43 45
72 25 14 9 13 23 29 72 88 53 52 98 50 66 89 98 90 63 51 34 31 14 16 13 13 12 11 11 12 17 15 24 24 22 23 26 25 25 26 33 38 43 50 38
62 32 14 9 11 17 26 23 42 46 40 42 94 60 100 93 82 96 81 55 34 45 28 41 55 56 58 44 19 14 13 13 14 13 13 21 32 42 35 28 43 62 62 54
78 36 17 11 9 12 21 24 35 42 36 34 94 76 96 96 97 99 91 58 27 39 47 51 48 48 55 65 63 36 33 26 24 37 41 43 56 75 64 60 76 92 95 88
76 49 16 10 8 11 21 26 39 55 39 74 91 98 83 87 68 68 71 69 26 33 45 47 42 54 50 57 52 42 38 43 39 46 63 70 63 67 55 57 49 63 88 56
90 49 18 12 9 12 24 33 38 98 88 77 95 48 60 94 55 34 31 41 46 39 39 49 59 44 48 51 62 65 59 41 50 48 37 53 76 66 58 48 39 30 41 30
93 42 26 19 14 11 32 27 36 98 94 88 46 98 70 93 61 40 42 32 35 32 43 55 66 65 55 53 34 46 42 30 26 22 19 19 22 26 28 32 34 53 35 39
97 70 35 28 17 10 21 79 60 57 60 79 69 84 94 98 97 60 46 33 33 33 36 46 82 86 71 57 36 26 24 22 20 19 19 20 20 20 26 24 61 79 52 49
88 92 62 86 22 14 14 20 31 64 64 57 58 93 97 99 92 98 58 37 35 26 34 44 78 92 82 66 72 54 40 29 27 21 19 21 21 21 48 55 67 69 66 75
80 86 73 100 36 21 13 14 20 26 52 100 90 94 73 75 94 98 82 53 34 26 24 36 43 64 73 70 67 36 22 57 54 36 25 47 49 57 73 83 98 94 87 77
90 65 86 100 88 44 14 18 47 31 30 44 85 37 69 69 62 55 76 55 48 33 42 32 34 35 34 24 31 22 14 14 25 36 57 86 92 96 91 90 67 48 48 51
96 89 55 77 84 49 29 21 83 99 56 54 33 62 76 100 88 83 64 78 96 99 46 43 21 18 24 19 11 10 9 14 29 40 52 64 88 94 59 50 83 67 66 94
98 100 93 99 71 94 59 42 25 34 48 61 65 70 70 98 98 92 97 98 56 96 79 36 27 14 9 6 10 12 13 11 10 13 25 53 65 57 95 97 95 97 100 81
97 92 100 100 93 80 100 100 64 22 22 44 60 65 75 93 95 96 95 84 74 52 44 43 25 11 7 10 28 33 28 34 33 58 57 53 70 89 96 98 97 92 75 47
87 83 55 51 82 99 68 95 100 91 93 85 77 60 48 100 90 82 67 35 33 32 45 44 18 7 11 31 37 28 25 26 28 28 31 50 76 89 89 89 67 47 31 19
98 79 54 75 69 49 48 55 64 67 47 43 53 42 35 43 58 81 30 42 25 26 23 13 8 10 10 18 26 22 21 24 34 42 42 43 40 37 42 46 42 22 20 21
98 100 90 83 64 48 51 53 57 41 26 25 31 28 70 93 98 34 20 28 26 22 17 12 9 9 9 14 15 13 17 21 23 26 34 41 46 49 49 24 20 22 24 26
99 94 94 100 88 56 62 52 48 42 33 39 35 37 45 61 52 45 27 19 12 11 11 14 16 17 20 17 11 10 17 25 28 32 40 46 49 33 21 19 20 23 24 25
96 95 87 91 98 88 77 70 73 60 52 60 53 50 52 50 46 34 31 25 26 22 23 20 19 28 29 20 12 9 12 24 31 39 42 38 24 21 20 20 23 26 30 37
95 99 96 94 97 84 100 98 95 78 87 88 72 68 58 52 52 46 32 25 30 42 49 56 58 49 34 21 14 10 12 20 26 26 21 20 20 20 22 24 27 33 45 53
83 97 99 100 94 90 100 98 99 98 88 90 80 82 66 53 54 56 53 32 40 42 42 48 62 67 60 46 27 14 13 14 16 20 20 21 24 26 29 38 52 56 64 85
99 100 97 96 94 88 96 97 92 99 98 96 93 91 70 64 58 68 63 45 48 53 60 69 75 66 55 64 54 26 19 21 23 25 29 37 54 70 77 77 74 74 94 100
97 100 98 93 100 100 98 98 99 96 86 93 93 91 92 79 75 72 78 66 65 76 75 64 74 83 78 87 77 48 34 29 30 48 76 88 87 83 87 94 99 100 100 100
96 95 97 96 100 94 97 99 100 98 99 96 93 99 100 94 86 88 86 75 78 80 76 78 90 91 97 93 91 86 62 56 73 91 93 88 94 98 99 100 96 90 100 100

GFSCGP_500_rhum_075.txt.gz
RH
72 65 34 12 12 13 21 40 43 84 93 97 60 86 62 57 52 42 48 69 52 77 67 61 62 70 78 74 82 83 80 83 80 66 53 43 55 55 61 72 76 73 80 90
61 65 26 13 11 8 20 40 36 69 95 60 76 64 53 75 57 34 29 46 16 15 24 31 46 38 35 37 46 74 72 54 32 26 24 22 21 19 18 23 35 43 59 54
69 67 41 16 11 8 27 41 47 42 68 80 68 70 73 59 63 62 59 28 43 19 15 13 15 16 18 20 21 22 22 22 22 20 18 16 16 16 19 24 33 37 47 46
80 73 71 24 12 10 21 34 35 34 40 46 71 55 69 78 89 41 69 52 30 29 22 31 43 43 32 14 11 10 9 9 9 10 12 14 14 19 22 20 21 30 40 48
70 78 73 42 12 10 16 27 21 35 40 29 36 80 78 78 85 58 54 49 31 40 44 43 46 46 47 53 37 25 24 20 16 16 19 27 52 38 51 60 52 53 78 76
78 76 68 45 13 9 11 24 21 28 40 34 41 99 28 72 82 68 25 24 28 40 47 40 39 46 42 45 43 25 24 24 14 14 42 45 60 58 44 67 79 46 49 85
71 70 70 51 16 10 9 14 22 23 29 39 66 57 44 76 66 44 34 28 23 25 31 39 44 44 43 48 44 32 22 22 24 22 32 74 66 66 68 61 59 58 44 58
81 79 81 66 22 12 12 13 21 21 36 48 51 68 63 73 53 64 73 46 25 23 24 25 28 53 56 42 45 42 36 26 28 40 46 54 65 51 26 22 26 39 45 58
83 69 95 90 37 16 15 12 34 31 47 95 80 93 79 95 94 85 75 44 39 27 28 21 20 33 34 57 47 48 39 30 29 27 27 36 46 34 20 16 18 19 46 86
93 94 93 78 45 26 15 22 51 59 44 83 82 80 83 86 92 93 55 61 37 37 37 29 24 17 24 43 72 61 60 29 24 27 24 20 23 45 34 20 18 22 85 88
97 84 89 93 44 24 21 18 32 49 60 53 53 68 44 94 91 84 90 80 67 58 47 34 31 35 37 38 56 67 91 77 66 34 21 28 16 17 30 29 42 80 100 99
84 89 100 91 96 34 44 27 53 59 66 60 54 34 52 93 86 80 90 96 75 51 30 29 32 33 40 57 79 71 44 52 64 43 65 64 37 71 99 98 97 92 98 92
90 94 98 97 83 62 40 51 22 25 85 39 55 61 65 96 100 100 74 69 79 64 52 50 28 33 35 36 35 58 35 58 63 73 78 64 97 42 58 98 97 100 84 74
100 90 90 85 87 97 92 36 40 24 28 20 20 58 100 100 99 81 85 88 65 62 84 83 53 35 28 16 15 16 17 20 33 37 61 52 67 62 89 71 64 61 61 95
84 84 97 83 83 99 73 62 51 27 16 38 33 45 64 63 79 88 80 50 48 87 88 57 52 37 21 23 21 10 7 15 30 40 40 43 44 51 64 74 79 73 92 97
58 80 99 97 86 88 98 95 71 52 43 65 54 88 94 95 82 83 100 97 48 30 34 48 23 31 24 9 7 8 10 30 36 30 34 26 36 47 54 71 85 100 100 90
100 98 100 91 97 100 90 98 87 73 62 48 37 42 52 70 91 76 96 84 41 18 30 48 34 30 33 24 9 17 28 20 21 21 20 19 23 32 38 36 43 39 36 39
90 91 100 91 100 88 68 70 95 65 92 77 97 46 33 69 72 48 94 68 65 28 22 26 36 39 32 12 10 23 20 17 15 13 12 15 21 22 22 24 29 34 37 40
68 99 96 97 93 80 72 63 70 74 95 75 86 64 40 50 55 71 60 29 23 26 37 19 24 22 18 15 12 13 14 17 17 12 11 14 19 23 27 30 35 41 40 21
100 91 82 92 91 80 70 70 91 76 90 89 56 62 65 45 42 43 67 35 28 48 38 25 19 12 11 11 12 12 19 27 21 13 11 13 15 18 30 36 38 28 21 23
100 100 90 85 86 76 80 88 98 83 53 58 65 57 51 41 41 50 50 44 46 40 34 29 24 24 25 31 42 38 32 34 23 14 11 11 13 23 26 23 20 20 21 23
96 95 100 97 88 82 91 95 95 74 74 73 70 93 73 64 61 58 59 57 51 49 48 39 30 29 33 37 50 58 55 54 48 39 28 15 14 16 19 23 24 29 45 67
98 96 95 100 78 84 99 100 93 90 78 82 75 76 80 78 78 74 74 74 67 58 51 57 42 44 48 48 53 59 68 61 57 68 59 23 22 26 27 34 53 80 92 92
81 97 99 94 97 99 96 98 92 89 97 95 94 95 90 84 76 72 78 78 68 61 61 67 70 62 61 66 62 67 87 82 86 85 63 40 73 44 43 72 97 99 100 100
50 80 63 69 100 99 92 96 96 94 98 97 96 80 87 90 94 96 94 86 80 76 67 78 72 64 70 70 68 80 86 90 93 96 93 88 68 71 92 100 100 99 100 100
59 74 73 86 100 95 100 100 96 100 96 98 96 93 98 88 83 83 87 99 99 92 84 87 81 84 83 76 70 72 84 87 92 96 95 87 87 95 97 100 100 98 99 100

GFSCGP_500_rhum_078.txt.gz
RH
77 44 68 40 27 12 14 19 19 20 34 47 50 54 82 89 73 34 43 16 41 55 54 52 61 91 80 56 47 45 57 66 70 64 51 50 54 49 57 66 85 78 83 84
62 48 74 49 44 13 11 21 23 16 41 35 40 55 52 70 65 41 26 38 23 19 34 23 33 41 75 93 77 74 64 64 56 49 38 42 45 53 64 72 73 76 71 72
57 71 87 64 49 20 10 21 17 37 32 41 35 52 40 59 70 53 40 37 30 16 14 13 10 16 24 33 48 56 49 24 23 21 21 20 19 19 20 23 24 24 30 42
54 75 78 79 64 29 11 21 46 30 31 36 40 44 39 44 54 49 49 35 36 38 37 53 50 19 8 10 12 16 19 18 16 14 13 12 12 12 14 18 18 18 19 22
42 77 87 88 72 33 17 13 39 28 29 31 25 24 63 59 42 50 66 43 30 43 46 47 49 46 41 16 11 13 13 11 12 13 13 17 23 28 36 44 43 40 45 61
51 91 82 86 76 45 16 14 30 23 22 26 29 22 76 51 50 27 29 26 31 35 39 44 44 46 45 47 39 26 19 17 16 14 18 28 42 53 48 41 41 41 48 47
42 62 73 85 69 43 12 12 17 23 21 24 32 23 41 29 22 32 48 22 23 28 33 36 35 41 50 42 42 44 36 25 21 21 18 31 64 65 70 61 52 46 34 32
40 61 75 81 77 68 20 15 14 15 22 21 33 26 37 39 36 26 42 45 20 25 26 27 30 44 45 57 47 43 42 38 31 27 27 31 40 47 53 56 39 35 30 26
38 34 78 90 99 96 53 19 23 22 24 19 28 64 65 62 45 47 40 57 56 41 29 26 27 30 60 70 54 59 54 42 32 30 27 26 27 41 43 45 82 36 20 19
30 41 82 99 96 99 75 36 32 22 26 18 46 76 62 46 65 56 30 50 84 66 55 47 35 33 31 49 70 86 83 66 63 38 27 30 31 25 36 79 63 56 44 21
44 53 71 100 86 96 86 33 34 41 31 20 30 66 74 59 53 39 27 72 85 80 40 32 30 26 26 31 48 62 59 56 92 96 93 70 56 72 67 69 80 95 95 98
34 77 78 79 98 93 81 31 32 28 25 24 22 28 60 62 41 48 63 76 50 23 37 40 52 27 19 20 27 41 70 100 94 68 62 66 50 70 77 90 97 96 97 97
54 86 80 92 96 86 87 50 32 65 39 56 46 19 37 39 39 53 84 55 40 40 28 38 82 55 24 22 24 21 31 70 95 84 50 60 61 88 85 78 86 99 97 94
80 85 66 41 55 92 97 76 39 100 51 50 65 46 64 43 42 93 89 75 74 70 48 42 81 74 64 39 29 16 14 21 18 25 37 61 58 52 62 72 78 81 75 69
100 64 61 78 100 99 98 93 59 83 74 52 32 48 41 59 84 75 78 86 71 64 50 38 44 50 66 61 48 32 16 9 7 10 22 50 43 44 46 50 49 51 52 49
100 72 82 77 96 99 98 98 91 94 88 93 50 31 29 36 46 83 74 48 30 33 50 22 32 39 18 28 29 25 20 11 8 13 32 32 27 27 29 35 43 47 36 31
100 83 82 47 88 100 94 80 80 86 93 100 52 26 74 99 100 91 83 39 31 33 39 26 26 34 17 22 27 28 24 10 20 30 33 30 30 24 18 21 28 24 26 20
97 97 72 56 85 98 61 90 85 85 100 80 68 69 60 64 76 84 79 68 48 27 22 24 19 22 20 21 19 18 16 13 11 13 20 20 22 18 14 13 11 11 13 17
100 100 90 77 54 71 80 86 91 97 97 73 96 97 73 32 18 20 27 38 38 21 29 33 32 41 26 20 20 19 14 13 20 28 22 18 22 22 18 14 13 12 14 17
100 99 100 98 90 59 59 98 89 98 93 96 73 98 87 48 53 50 47 40 34 28 40 40 38 38 31 29 27 26 22 23 35 37 30 25 25 30 27 22 19 14 14 24
98 86 68 64 50 63 80 97 100 94 82 98 98 98 96 84 82 100 88 58 39 35 40 48 44 43 40 36 30 29 34 40 43 49 52 49 47 45 44 39 30 17 18 20
100 100 89 81 79 52 84 92 96 86 93 98 96 91 98 99 91 84 66 42 39 41 48 53 52 50 49 53 56 39 42 52 56 61 66 67 67 59 60 65 40 25 28 33
96 100 100 100 97 98 92 96 98 97 95 94 99 98 94 91 82 78 69 60 53 46 54 63 64 67 65 60 68 66 62 62 73 72 71 76 90 83 97 87 61 48 69 60
95 100 100 99 100 100 95 95 94 99 100 97 97 88 89 83 75 83 73 71 64 70 75 75 82 89 85 76 79 92 79 87 83 83 92 99 99 100 100 94 88 90 87 86
99 99 98 93 100 100 99 100 100 99 100 97 93 96 100 98 90 87 84 87 94 91 93 95 94 99 91 78 77 87 96 99 98 87 97 100 99 92 91 93 97 100 100 100
57 90 95 67 65 83 100 98 99 88 95 99 95 98 100 100 100 99 99 96 90 92 96 96 100 100 99 95 92 92 87 91 99 100 97 96 98 100 99 100 98 92 93 95

GFSCGP_500_rhum_084.txt.gz
RH
65 49 47 61 81 81 71 55 44 17 21 12 16 22 33 34 24 26 35 32 26 28 14 28 64 59 38 28 16 13 16 21 59 78 84 86 97 95 94 89 95 99 100 95
62 46 68 67 82 84 78 60 49 20 18 14 14 20 35 40 29 24 28 37 23 17 13 19 48 90 74 59 49 40 31 64 70 56 61 70 88 83 100 100 100 96 98 98
64 71 76 69 84 84 77 64 60 36 20 14 11 16 26 36 44 23 28 33 28 18 31 20 16 56 86 87 84 78 70 61 76 91 81 67 67 73 80 85 83 89 99 100
43 56 71 64 72 83 69 80 69 50 35 19 16 10 28 24 35 32 22 29 30 25 36 48 43 12 31 58 68 54 52 44 45 53 56 54 52 51 51 62 68 70 69 72
34 35 46 62 81 87 88 98 92 64 51 35 19 13 23 27 38 47 40 39 31 28 34 45 45 46 30 12 19 24 23 20 18 20 20 22 27 24 30 50 57 59 58 60
26 26 38 53 81 93 96 95 87 79 66 42 22 15 26 22 32 30 37 35 28 26 33 42 42 40 42 43 36 22 16 12 12 12 13 13 14 16 16 18 20 20 21 24
24 17 22 39 62 74 86 72 78 71 62 48 32 17 15 21 31 50 29 20 20 20 25 40 39 35 35 39 39 44 35 26 22 18 18 22 31 39 44 48 51 50 49 49
9 11 14 21 45 74 82 82 82 86 77 70 57 21 16 26 21 45 32 28 25 22 23 26 28 27 26 34 40 50 40 40 41 32 30 26 30 47 61 66 65 62 56 53
7 8 13 18 35 80 83 70 81 83 85 74 64 29 12 26 20 35 44 41 36 25 24 22 27 27 26 27 39 50 59 54 45 40 37 34 34 36 34 29 28 31 35 41
5 5 7 14 21 53 62 94 94 88 83 75 54 47 24 14 21 36 45 60 52 40 41 36 36 34 48 61 47 42 58 69 65 60 47 34 32 28 26 27 31 32 29 31
4 5 9 10 11 34 59 66 79 76 68 60 54 45 40 20 14 24 60 63 66 48 44 53 48 57 50 41 36 54 69 69 78 88 75 67 68 50 49 53 89 90 87 86
4 4 4 10 16 21 48 69 97 97 81 74 59 44 55 30 14 15 25 55 37 51 27 44 66 62 33 47 31 33 51 65 74 93 100 97 98 98 85 94 92 99 94 94
10 5 4 3 14 34 27 47 70 72 85 58 62 48 61 52 35 23 25 74 62 44 42 27 73 53 42 38 18 22 25 32 39 45 76 93 97 98 98 97 93 85 79 77
7 7 6 4 5 31 42 61 68 78 64 43 25 45 55 59 52 47 34 68 77 58 36 38 35 50 41 54 54 41 29 24 25 25 21 24 60 64 50 54 52 64 69 61
26 12 14 6 7 14 18 45 75 79 51 48 38 48 62 72 62 64 60 53 55 54 41 49 49 43 45 37 38 35 33 33 30 25 19 15 14 10 8 18 26 45 51 53
21 24 29 13 19 22 21 37 76 59 46 44 40 41 68 77 63 55 71 81 57 49 76 74 71 73 43 37 56 39 33 28 36 42 36 25 18 12 15 23 39 54 58 68
16 97 60 27 67 51 100 14 26 58 54 35 32 48 72 84 79 68 56 70 58 42 66 65 77 81 65 51 32 38 31 25 31 34 35 32 27 27 27 36 48 52 52 43
14 70 100 84 100 100 41 32 38 41 58 58 40 42 56 72 98 86 70 55 59 51 36 35 50 65 71 46 29 31 32 20 17 20 24 24 21 21 30 32 40 50 49 40
26 26 60 100 98 98 74 74 65 55 34 59 64 54 67 81 94 81 85 65 79 54 32 67 84 88 52 32 34 38 34 30 29 27 24 24 29 32 33 37 50 59 50 39
36 21 27 87 100 94 81 100 100 100 58 58 81 87 86 99 79 76 100 100 98 75 39 99 97 60 49 48 39 33 30 25 29 39 40 41 43 48 48 50 45 37 36 40
48 70 32 38 89 84 100 100 94 96 70 80 95 85 70 67 58 98 98 99 96 94 78 80 65 68 70 57 49 41 36 38 42 44 55 57 54 51 50 49 55 60 56 49
49 99 100 88 100 89 100 100 100 87 90 68 80 65 57 62 85 100 99 100 100 98 99 92 77 86 91 73 63 75 92 98 70 65 72 76 76 74 72 69 69 64 66 70
55 40 53 80 96 92 99 100 99 100 98 82 65 61 89 91 98 98 100 94 93 100 97 99 99 99 95 94 96 92 92 84 80 78 83 82 83 82 78 74 74 78 80 84
48 43 22 37 57 99 96 96 93 68 83 99 83 90 100 99 94 99 97 97 100 99 86 89 94 99 100 99 98 97 91 89 90 88 84 86 84 86 89 87 85 83 84 93
71 56 40 30 61 83 96 100 100 87 72 93 92 95 97 99 96 98 88 92 99 99 99 96 98 93 92 84 87 80 80 94 99 99 88 84 79 87 86 84 83 84 85 83
60 81 36 56 73 67 99 96 100 100 83 62 79 99 90 99 98 99 99 99 98 99 97 98 93 90 93 96 89 90 91 96 100 100 100 99 95 94 90 86 84 83 85 87

GFSCGP_500_rhum_087.txt.gz
RH
82 63 52 74 68 70 71 60 38 65 67 42 23 16 29 34 41 36 23 22 31 22 20 13 39 56 27 20 16 17 21 35 40 84 97 97 97 97 96 96 95 88 98 96
84 68 80 78 66 68 75 74 48 66 69 48 28 19 24 35 37 38 24 18 28 23 20 12 19 71 61 44 25 27 26 27 35 72 85 92 94 97 97 97 89 95 95 100
92 91 93 85 73 75 82 80 65 68 73 57 42 24 19 27 35 35 40 19 24 26 18 26 18 26 76 79 66 52 45 35 42 58 72 65 69 79 86 96 97 97 98 98
76 59 67 81 77 82 79 86 75 77 74 65 47 28 20 24 29 30 46 24 26 26 25 31 37 28 26 74 70 70 67 58 54 57 96 94 97 100 100 97 97 99 99 96
36 28 31 52 93 96 95 82 79 78 69 56 50 39 16 31 34 34 46 36 35 35 27 31 37 36 27 12 38 34 30 35 43 56 61 64 68 57 53 65 77 99 91 85
38 28 27 33 48 85 97 90 92 76 64 46 50 52 18 22 29 42 32 35 48 23 28 36 40 38 33 32 19 12 13 16 17 17 18 18 17 18 21 24 30 48 38 35
55 43 20 38 42 64 88 87 72 68 58 34 58 70 36 25 28 31 36 30 32 21 24 32 39 38 33 34 32 30 24 18 15 13 12 12 13 14 16 18 24 30 33 33
70 57 44 23 26 55 88 96 87 92 68 64 70 54 58 32 23 25 28 33 26 41 25 28 28 30 27 29 34 39 37 31 31 23 19 18 19 23 31 42 51 49 52 50
22 25 25 21 13 20 53 73 96 96 76 71 62 50 59 37 26 26 40 36 34 58 49 31 30 31 29 28 31 36 44 50 41 34 34 31 27 28 31 39 46 47 43 42
25 15 9 9 10 12 24 54 79 78 63 65 53 53 46 63 44 20 47 45 39 53 73 61 42 43 37 39 46 46 49 48 56 50 44 36 33 32 31 29 26 25 27 29
9 28 23 10 10 13 17 38 52 52 50 48 45 36 43 64 63 32 26 40 39 50 56 62 67 66 54 52 52 52 54 57 62 72 76 63 50 39 42 34 31 47 56 76
4 4 9 14 24 20 17 24 49 60 59 57 50 34 56 67 79 56 32 30 57 67 60 51 50 60 77 67 40 42 37 53 70 78 76 84 83 85 91 94 94 90 94 97
4 4 3 4 7 13 19 25 30 54 50 24 26 24 42 58 83 76 48 31 44 66 68 58 40 47 85 42 55 30 22 35 46 62 70 81 96 98 85 94 98 99 95 98
3 3 4 5 7 11 8 9 25 39 22 21 19 31 38 49 63 95 71 48 37 82 100 75 60 41 95 52 54 68 60 33 23 23 26 30 42 42 34 92 82 56 65 76
2 3 3 3 3 5 12 10 10 14 12 16 26 26 43 56 56 87 95 64 47 66 99 97 67 53 66 98 59 51 52 46 45 42 34 29 23 21 20 26 29 37 40 46
2 2 2 2 3 7 4 6 15 8 10 15 26 28 43 60 68 75 100 91 53 49 75 100 92 98 62 73 97 62 59 53 28 23 25 39 38 32 23 20 16 16 22 26
3 4 4 2 4 11 7 4 10 11 16 9 16 34 69 85 78 71 99 96 97 66 76 99 100 100 85 83 90 78 58 48 33 28 25 25 26 27 31 36 40 38 33 36
13 20 19 9 14 11 2 9 15 10 8 12 10 18 44 56 75 76 79 100 100 90 64 79 97 100 95 86 60 70 47 31 29 32 29 27 24 25 26 26 25 24 30 33
34 32 27 23 22 12 6 32 88 56 9 19 20 17 25 48 74 34 64 91 100 100 96 88 88 86 64 98 92 81 48 42 33 32 35 36 36 38 40 43 46 50 53 54
52 58 39 27 35 21 17 100 100 99 37 52 38 37 27 27 33 16 73 90 96 89 96 96 85 83 99 99 99 75 46 43 35 38 35 36 43 46 48 51 60 64 66 67
76 62 46 51 46 17 29 100 100 99 66 77 64 54 48 31 26 20 70 51 61 74 85 96 97 89 81 98 99 81 58 53 49 52 51 54 92 91 69 79 84 80 74 73
77 60 50 43 75 65 91 95 100 100 100 100 90 69 61 56 60 35 54 77 72 85 84 80 87 100 99 99 98 91 80 73 66 60 82 85 84 89 98 95 87 82 82 88
64 62 37 31 74 100 100 82 85 94 100 100 99 78 72 73 78 72 69 74 92 85 88 90 74 93 96 100 100 98 99 95 97 94 96 92 86 93 90 84 80 88 86 84
64 61 44 38 40 48 87 100 100 99 99 100 100 96 83 76 73 64 55 70 80 90 100 89 83 97 100 94 99 95 100 100 88 87 95 90 93 94 94 91 86 86 86 88
55 37 45 40 40 33 61 94 100 99 87 99 99 98 97 86 67 44 42 69 95 100 100 99 99 99 98 98 93 89 78 92 90 87 86 89 100 100 91 82 82 89 91 86
55 48 32 38 47 23 76 90 99 100 89 98 100 88 99 99 85 77 87 99 100 98 98 98 93 73 78 74 65 65 66 69 78 97 100 99 100 100 95 92 100 98 95 90

GFSCGP_500_rhum_090.txt.gz
RH
96 93 59 73 84 73 71 72 69 66 68 64 58 36 24 19 19 27 24 24 29 20 18 20 11 55 28 20 13 11 13 24 45 69 97 99 91 94 97 95 97 96 97 96
80 73 99 100 91 82 63 71 76 69 69 73 60 37 35 19 18 28 26 23 32 24 19 17 12 38 57 32 19 14 13 17 41 48 95 94 96 97 97 96 97 96 96 97
88 90 98 96 95 94 73 80 91 68 68 73 62 45 50 34 17 25 29 23 27 34 22 17 20 14 54 67 48 26 18 22 24 40 82 91 95 97 96 96 96 97 97 97
90 82 84 96 96 98 87 99 90 72 70 75 56 40 48 33 19 17 23 24 26 34 30 19 25 30 9 55 71 69 40 26 31 41 65 92 92 89 95 96 97 96 96 96
82 55 35 80 97 95 95 93 96 84 77 64 60 47 48 37 20 20 27 24 22 38 40 21 24 37 30 11 39 43 46 58 60 67 64 68 81 87 87 87 93 94 96 95
71 82 34 26 76 85 98 99 95 86 90 66 58 64 49 50 22 20 28 25 26 32 39 22 27 38 33 29 23 10 25 20 25 42 57 66 69 55 47 50 55 80 96 93
72 62 38 22 65 67 61 89 97 98 86 71 56 65 56 50 34 25 31 29 26 27 21 22 24 36 36 31 30 26 20 12 12 11 12 14 15 13 12 12 14 18 22 23
35 75 59 56 57 42 51 83 98 98 98 88 57 50 60 82 68 26 34 26 31 29 23 23 25 27 30 28 28 29 30 28 24 20 15 13 13 15 15 18 21 23 27 30
16 18 78 62 48 27 32 67 92 96 96 80 70 49 53 74 75 30 24 29 26 37 32 28 26 27 26 24 21 21 27 32 36 31 27 22 18 19 20 24 31 42 44 48
32 12 13 35 83 79 31 28 44 84 85 88 65 52 46 54 79 72 19 28 26 46 35 36 40 46 34 34 35 31 29 32 37 50 39 33 30 27 24 25 33 34 33 32
45 27 12 16 19 16 42 60 28 33 51 62 58 56 33 54 76 88 56 23 46 47 39 36 46 43 39 47 54 47 38 34 40 43 62 56 44 35 32 32 30 30 28 28
10 41 30 15 26 30 19 13 12 12 27 40 45 51 46 52 71 90 91 38 28 34 40 43 59 63 52 49 40 36 24 34 40 48 51 65 76 76 66 69 81 81 67 69
4 4 8 9 9 50 52 26 16 12 14 22 35 63 47 46 48 81 97 51 49 45 41 54 80 82 70 47 33 31 33 21 32 52 60 68 72 75 78 82 73 72 89 87
5 5 5 5 7 9 9 22 19 16 15 14 17 31 36 45 51 78 98 97 86 69 59 51 56 81 74 56 56 39 44 44 29 23 30 32 30 34 41 50 40 69 94 91
5 5 4 4 3 5 12 12 9 13 28 27 27 28 29 27 41 54 79 97 96 95 93 79 52 94 86 59 96 84 54 45 40 31 37 43 38 40 26 22 31 31 38 34
6 4 3 2 2 2 3 3 3 9 7 6 5 5 12 24 30 43 59 97 83 88 98 100 100 94 64 66 74 98 86 75 44 38 34 21 22 26 36 33 24 24 23 25
5 3 3 2 2 3 5 3 3 3 4 5 6 9 8 7 10 24 48 70 93 78 81 79 67 67 77 62 89 78 99 99 76 39 28 23 20 18 21 26 31 34 32 38
3 3 3 3 4 4 6 5 4 4 3 4 3 4 7 10 8 8 22 45 76 96 93 80 80 99 100 76 68 100 94 80 79 66 39 28 26 27 28 27 24 34 54 47
4 4 8 9 9 8 11 11 6 4 15 3 3 3 4 6 6 5 7 16 47 88 85 92 82 77 77 99 97 100 68 100 92 76 46 40 42 41 40 39 41 51 50 51
8 15 16 18 25 14 13 15 17 28 23 70 24 16 11 5 5 7 18 10 11 35 61 79 100 82 83 83 100 90 74 92 93 86 53 41 48 49 37 40 50 57 62 70
28 33 27 41 32 19 28 30 20 36 66 68 89 72 36 11 11 9 20 14 11 21 47 72 85 90 87 88 90 87 84 97 99 97 93 69 47 44 42 58 94 97 96 95
63 50 46 44 38 32 35 40 46 78 87 99 100 89 86 54 42 34 38 31 22 17 23 34 43 66 88 97 97 99 93 100 96 88 97 98 76 51 60 94 98 96 100 100
68 70 58 49 46 32 41 99 100 99 98 91 100 100 100 75 56 48 46 43 39 34 20 21 47 74 80 88 94 90 100 99 99 92 96 100 88 83 98 98 94 100 100 100
70 63 47 47 48 37 31 30 84 97 96 100 99 90 96 98 76 86 90 69 48 42 48 74 65 75 86 93 84 86 100 99 96 96 100 100 100 99 96 96 96 98 100 100
57 43 49 34 52 48 48 44 27 62 100 100 98 99 100 89 72 76 76 74 72 73 76 72 74 80 92 91 96 95 100 96 84 94 95 100 96 91 100 98 98 99 100 100
72 62 42 47 38 27 66 52 41 45 98 100 100 92 100 100 75 82 97 71 67 55 52 63 89 89 100 91 100 90 78 96 100 99 88 76 87 87 99 99 94 100 100 100

GFSCGP_500_rhum_093.txt.gz
RH
87 94 65 95 96 96 95 72 78 86 84 73 57 44 49 67 31 18 11 16 20 28 20 18 17 17 27 36 20 20 8 10 15 34 82 89 72 79 78 88 92 87 84 96
88 68 87 100 98 96 95 73 61 74 82 78 65 48 42 58 37 28 19 11 19 28 24 22 17 21 15 52 24 18 11 9 12 28 68 98 93 94 95 97 97 96 96 96
86 86 96 96 96 91 99 84 83 91 92 83 64 53 46 55 56 45 26 11 17 25 27 26 19 24 17 45 60 37 24 13 12 20 40 84 94 88 94 97 97 97 97 97
88 96 97 97 96 98 91 100 97 93 82 80 96 58 50 56 55 39 31 12 18 24 30 27 19 25 28 11 55 64 51 20 14 15 24 62 93 93 94 97 96 97 96 97
72 83 90 97 78 78 89 95 95 98 92 82 91 72 46 58 61 53 33 13 16 25 28 21 17 24 31 28 13 38 42 54 38 31 43 47 72 90 90 94 94 95 96 96
76 89 79 92 74 31 66 92 98 99 98 90 88 81 48 76 96 69 27 14 13 26 26 19 16 26 33 29 26 16 13 25 30 48 56 68 82 89 92 88 91 87 90 95
42 84 71 70 95 31 28 77 94 95 97 87 100 77 56 98 70 36 28 16 16 28 24 17 19 22 34 31 28 26 24 18 12 13 16 25 45 45 33 32 44 61 87 96
41 50 88 46 86 50 16 47 64 73 98 98 99 73 60 92 96 70 51 35 16 22 24 23 18 23 21 29 28 26 25 26 25 21 15 12 10 11 11 11 12 15 19 21
19 38 71 83 88 44 25 48 72 78 97 99 99 92 78 72 80 80 76 52 18 19 29 27 30 21 25 20 21 20 19 19 25 31 28 23 17 14 13 14 18 22 25 28
23 21 20 28 45 82 63 63 67 61 88 100 98 97 100 80 81 89 88 49 22 21 21 27 32 30 27 22 25 30 26 26 22 25 36 35 28 24 22 21 20 22 27 34
48 27 26 19 26 49 96 68 53 28 57 100 98 100 99 80 91 95 93 79 34 20 25 26 28 32 39 37 33 33 23 24 22 23 25 46 39 32 30 29 28 28 29 29
37 40 33 28 22 40 40 89 67 57 68 99 100 87 99 80 66 70 92 87 63 28 26 26 26 33 42 57 54 43 21 16 15 20 25 34 53 54 52 44 40 44 55 58
41 45 15 10 28 20 38 52 24 39 76 85 98 90 77 90 95 87 80 84 88 49 31 26 29 31 37 62 53 51 30 19 16 14 24 28 42 55 65 67 62 64 67 65
17 14 14 14 41 39 44 23 54 42 24 23 21 40 53 59 72 92 95 86 85 65 51 54 39 42 50 54 46 57 41 23 18 17 15 18 34 50 47 43 41 50 50 38
39 33 16 5 12 8 9 28 23 37 65 44 36 32 38 33 22 28 56 75 92 82 67 52 41 54 51 51 56 58 61 36 27 23 20 18 14 16 17 29 34 24 21 26
19 6 7 8 5 4 4 4 5 7 8 28 44 45 25 24 24 25 30 41 66 88 96 97 65 43 58 40 70 74 39 42 48 38 35 28 23 16 13 12 15 20 23 22
39 43 33 17 9 12 6 3 2 2 3 4 5 7 8 6 6 8 8 18 40 64 80 94 100 77 78 84 97 70 59 61 48 57 69 52 38 33 21 15 15 21 28 33
20 14 18 9 7 9 8 7 6 6 5 5 4 4 4 4 3 4 5 8 18 46 49 56 72 88 98 97 62 59 81 90 72 52 49 50 52 38 28 23 18 16 16 16
46 39 25 7 4 5 7 7 7 7 8 6 5 5 6 4 4 3 5 8 6 8 35 63 77 78 77 74 67 65 100 100 99 90 92 84 68 42 37 30 26 29 31 31
30 26 14 5 5 6 8 5 8 10 14 31 9 10 13 7 6 5 4 4 4 4 4 16 50 63 91 87 81 70 94 96 98 98 91 91 100 78 57 44 39 38 36 32
10 6 5 6 6 6 17 29 19 14 35 26 14 12 8 6 6 5 7 10 6 17 6 5 17 43 72 68 80 83 68 68 76 96 100 97 98 97 78 63 63 57 52 48
26 14 15 29 13 17 28 38 35 30 18 15 13 10 7 4 8 9 16 9 12 9 7 5 6 10 23 42 58 75 81 79 80 89 87 96 94 100 88 86 90 84 64 51
51 34 54 53 42 49 53 43 29 25 36 36 29 44 25 24 34 58 56 29 22 18 22 12 10 17 19 46 63 71 87 93 96 97 93 90 100 99 100 95 91 100 95 78
77 90 67 68 61 58 48 37 27 42 24 29 74 88 81 71 80 79 100 83 69 62 47 42 26 14 21 33 33 54 71 89 96 100 100 100 93 98 100 95 100 88 90 97
86 94 66 58 60 50 47 33 32 34 34 23 62 75 91 66 92 96 100 74 66 61 57 64 50 29 18 31 51 76 86 97 100 100 100 100 99 100 96 85 82 81 76 100
94 83 67 60 43 30 37 25 27 29 29 25 38 100 100 99 97 100 93 91 77 78 74 69 66 58 48 63 79 81 99 100 95 96 100 96 92 100 98 100 99 100 99 93

GFSCGP_500_rhum_096.txt.gz
RH
59 46 30 58 83 97 100 89 87 75 76 100 100 88 44 60 67 79 73 42 23 10 17 23 18 13 18 19 41 20 20 11 11 12 19 40 77 73 85 90 95 97 96 96
67 29 61 79 96 100 99 94 86 92 75 77 81 62 45 58 55 65 57 48 51 12 14 25 20 14 20 15 41 42 19 13 10 14 34 54 78 92 90 91 94 96 97 95
69 56 68 86 97 95 89 92 98 96 96 93 92 85 42 54 61 67 65 61 52 20 12 25 21 14 20 19 29 56 37 21 14 13 25 66 72 88 96 96 97 93 93 95
64 75 81 82 84 99 92 99 98 93 100 84 100 76 64 50 54 76 50 47 44 17 10 24 20 15 19 25 12 42 48 41 18 14 13 20 37 66 94 95 97 97 97 97
49 64 93 96 85 99 92 99 99 95 96 98 87 83 62 53 58 70 80 55 47 15 12 23 22 14 18 28 23 12 29 33 43 26 15 23 36 45 62 91 91 97 95 98
56 82 71 83 98 95 100 100 80 95 99 76 84 98 73 61 68 92 96 65 39 16 15 22 22 14 17 29 28 24 18 13 16 26 38 39 53 51 50 50 66 83 93 96
76 94 95 90 94 98 100 74 37 71 85 64 93 97 82 83 95 100 98 62 34 17 17 16 22 15 17 26 28 27 26 24 20 13 14 25 41 58 69 68 64 59 67 87
93 79 88 72 54 97 84 96 48 25 76 94 96 81 83 89 98 91 99 64 41 26 19 15 22 19 16 16 20 20 20 20 23 25 20 14 10 14 17 17 15 29 54 66
99 87 83 67 52 96 95 90 75 28 88 97 95 93 97 98 97 98 78 74 71 55 22 17 19 26 19 17 13 15 16 15 15 15 24 28 21 14 12 11 12 13 18 37
99 100 99 77 44 91 90 100 91 28 48 71 99 98 99 96 98 98 97 81 68 66 24 20 17 22 26 23 19 16 16 17 15 15 14 23 36 30 23 20 18 16 18 23
84 97 100 76 58 70 97 92 75 98 76 69 84 96 98 97 95 95 98 100 86 75 28 23 20 23 23 31 28 26 23 19 15 13 13 15 30 41 34 27 25 23 21 22
81 65 54 95 41 40 83 56 97 71 79 93 92 87 98 98 90 98 98 100 89 81 63 22 22 23 22 28 38 45 34 25 16 16 15 17 16 49 52 43 42 36 36 39
69 66 68 94 99 53 49 60 78 100 72 90 96 73 94 95 97 99 98 96 86 79 75 29 29 22 24 23 28 47 32 32 26 14 16 19 17 24 46 56 58 55 50 60
82 43 37 58 100 75 55 100 98 97 99 93 77 80 98 90 96 97 98 98 93 86 89 58 45 44 28 30 27 33 35 37 45 27 16 16 23 24 28 39 48 51 48 46
91 81 37 31 79 62 37 30 31 34 61 64 41 62 100 99 93 94 87 98 100 97 100 97 80 82 70 41 36 33 55 66 49 42 22 17 19 20 21 20 17 16 24 27
49 90 68 17 13 10 8 30 20 41 70 78 78 57 50 33 31 23 33 67 69 91 73 92 98 92 67 63 47 42 53 72 60 47 46 30 22 18 20 18 16 13 12 19
80 93 29 47 22 5 5 5 14 4 4 12 17 22 28 46 53 40 31 29 77 100 81 72 82 100 85 69 58 46 55 52 70 40 41 48 41 38 28 24 21 16 13 12
83 77 31 16 34 43 28 17 14 7 3 3 3 4 4 6 6 23 46 28 15 25 32 45 65 66 78 98 73 67 68 69 77 47 63 56 55 49 45 42 35 27 24 19
92 49 46 47 26 22 19 14 11 9 8 7 6 5 5 5 5 5 4 4 15 5 11 12 15 23 30 43 60 53 87 94 78 46 51 62 58 55 52 50 55 39 33 26
100 83 46 26 28 25 14 9 7 9 12 11 8 9 9 10 8 8 9 12 8 5 5 4 5 5 8 23 63 75 89 74 74 63 56 60 92 98 91 90 73 74 50 46
67 78 53 35 37 25 71 12 17 12 20 22 12 14 16 14 8 6 7 5 5 4 5 7 6 5 5 5 20 40 62 62 70 80 77 82 98 99 98 95 98 100 98 83
53 24 22 13 12 10 20 18 17 22 22 26 21 10 9 9 7 6 4 5 4 3 4 10 7 5 4 6 16 40 63 60 84 100 100 93 98 95 100 100 97 88 97 100
100 68 45 32 34 37 48 27 33 29 35 27 18 22 12 11 8 6 6 5 5 6 6 14 12 7 4 4 6 15 45 62 71 84 99 100 94 95 96 99 99 98 99 99
84 100 66 78 100 100 100 66 83 52 39 30 27 22 20 19 21 20 18 12 23 25 26 39 33 14 10 7 4 9 22 49 55 62 80 100 100 100 100 100 100 91 80 84
97 100 97 100 100 98 98 63 49 43 32 33 29 29 20 18 19 52 64 72 70 74 50 85 61 28 13 8 8 10 25 50 72 87 85 97 100 100 100 100 100 100 99 99
100 100 100 95 98 79 100 68 54 41 31 31 32 25 17 13 28 63 100 100 97 99 90 90 75 61 56 33 27 30 29 39 58 59 82 99 100 100 100 98 98 96 98 99

GFSCGP_500_rhum_099.txt.gz
RH
18 11 6 18 32 36 38 35 20 26 47 95 68 77 88 85 66 69 52 50 45 54 29 19 20 20 17 14 17 33 32 16 13 10 14 26 41 52 66 92 88 97 96 98
15 7 22 41 44 38 36 33 23 28 69 98 83 64 79 68 62 59 71 63 61 54 41 23 26 22 17 14 20 24 45 31 15 10 13 34 71 81 76 81 86 91 97 98
8 10 35 33 38 38 30 44 58 65 93 91 87 62 64 75 51 63 70 67 64 52 43 30 28 23 17 16 23 14 45 48 26 14 12 35 48 50 70 86 85 90 100 98
8 13 22 25 27 55 30 72 80 92 98 65 98 51 71 76 68 54 59 61 60 50 47 24 23 23 19 17 25 15 22 37 43 21 15 17 45 57 68 83 94 95 100 97
10 15 26 27 24 60 52 76 89 95 92 77 73 76 44 89 90 92 63 58 66 47 50 25 19 20 20 16 28 23 15 17 24 38 24 35 38 53 45 73 90 98 94 97
7 9 10 13 42 62 75 91 98 99 90 65 72 81 52 64 95 94 96 87 81 44 44 21 16 16 21 17 27 28 24 22 14 16 38 40 44 52 64 57 61 81 95 96
8 6 12 44 75 74 70 93 98 94 77 54 73 83 60 74 86 94 94 71 62 60 50 17 18 18 20 19 17 28 27 25 24 20 13 18 38 47 51 58 63 69 63 78
5 8 14 32 45 82 76 82 89 80 70 76 84 59 72 97 88 98 98 98 88 74 39 17 17 20 22 17 14 14 18 15 15 20 25 17 12 16 26 31 29 35 50 57
8 4 12 44 84 89 83 88 72 100 100 96 87 75 85 100 88 87 92 98 77 58 65 42 22 19 23 17 18 14 16 14 14 14 14 24 26 14 12 12 11 12 35 66
8 6 32 40 97 83 84 90 99 97 90 92 84 97 97 98 75 100 78 96 96 74 64 68 26 20 24 22 24 18 19 20 16 17 14 14 25 31 20 17 19 21 18 38
39 8 61 87 84 95 86 91 94 75 100 84 51 74 100 98 92 98 93 100 93 98 84 72 31 20 27 28 29 24 22 21 19 13 14 15 16 30 35 26 24 23 23 27
66 57 99 90 95 96 99 100 98 100 100 88 61 47 95 98 96 96 98 78 100 87 69 70 30 22 26 31 36 38 38 30 23 17 13 16 18 19 40 40 31 28 28 28
100 81 94 98 99 98 100 85 91 98 98 96 66 56 92 94 88 98 98 97 92 98 82 66 66 38 25 40 35 41 51 37 31 26 15 15 18 17 20 39 48 52 46 43
100 83 78 90 100 100 93 100 93 86 80 82 85 92 99 96 99 98 94 98 100 99 94 80 76 65 32 33 34 37 33 51 35 42 30 18 16 16 19 24 39 46 51 55
99 100 95 90 100 93 100 83 94 86 82 68 72 78 97 83 99 96 100 97 95 95 80 68 93 89 65 45 33 34 38 35 35 54 51 35 20 16 17 23 30 37 44 37
82 70 98 82 69 95 97 65 46 83 98 89 81 89 98 87 99 100 90 91 98 92 82 73 77 90 67 58 60 54 48 50 40 47 63 37 29 24 21 22 19 19 20 21
58 49 69 92 69 31 72 69 44 30 32 42 57 59 90 77 93 92 85 77 71 59 88 95 85 99 89 83 76 74 64 68 52 39 53 54 33 29 29 27 26 21 22 21
24 52 64 79 100 82 30 19 19 19 16 24 20 17 62 91 96 66 59 64 53 37 36 49 59 54 48 52 82 90 73 68 64 66 54 70 51 53 53 35 36 39 36 30
36 65 90 95 99 53 64 52 26 19 10 12 9 4 3 8 35 66 59 54 60 78 64 28 42 73 36 32 34 36 62 86 64 67 67 79 76 43 59 57 59 63 66 63
32 96 100 93 92 16 30 64 45 27 15 16 12 8 8 6 4 4 4 4 4 36 58 43 27 15 18 14 12 26 29 36 77 76 84 90 90 82 56 69 84 85 86 77
44 83 94 75 50 63 54 54 30 15 19 19 18 22 12 8 8 12 11 9 7 8 7 8 14 11 6 6 6 6 10 9 44 96 90 96 98 99 93 77 84 92 99 99
73 77 96 100 86 58 55 95 90 72 31 22 20 23 20 19 19 18 13 8 7 6 6 5 5 5 5 4 4 4 5 5 20 42 72 92 98 99 99 97 98 100 100 92
96 76 51 74 68 54 83 50 98 100 56 25 13 11 22 20 12 9 10 8 7 6 4 4 4 4 4 4 5 6 5 6 6 32 41 63 81 91 97 98 98 96 100 100
99 99 80 46 50 34 48 50 85 76 57 19 16 40 30 16 17 13 12 10 8 7 5 4 3 3 3 3 3 5 6 5 6 18 58 52 71 89 100 100 100 99 99 100
99 100 99 77 100 98 87 81 85 75 31 22 37 33 27 24 23 20 17 13 11 15 34 36 21 10 6 4 3 7 13 10 12 17 50 79 81 97 100 100 99 95 100 100
80 97 100 100 100 100 100 87 85 42 43 45 40 33 32 26 23 23 17 12 16 58 80 92 62 67 75 42 34 25 24 42 42 31 22 70 100 100 100 100 100 100 99 99

GFSCGP_500_rhum_102.txt.gz
RH
18 18 20 13 14 16 16 9 6 9 17 43 49 24 32 47 59 54 46 44 56 62 44 36 43 21 22 21 20 16 15 29 20 14 11 16 37 65 78 81 95 96 96 94
14 19 17 18 20 18 15 12 9 12 29 37 48 18 21 51 56 59 57 51 58 65 35 33 53 34 24 26 23 17 16 26 29 16 12 12 40 75 79 95 95 96 96 97
13 14 17 21 24 18 11 9 10 12 47 34 36 4 15 46 69 76 64 61 51 56 45 39 50 39 30 27 23 18 20 19 37 18 14 13 59 63 68 84 97 93 97 97
10 10 10 12 9 21 10 27 21 18 26 18 51 6 21 50 69 79 75 79 81 64 55 54 64 32 30 27 23 19 25 15 36 23 16 17 33 51 75 98 91 96 95 96
14 11 9 9 10 36 14 47 31 31 29 31 32 35 7 46 62 78 78 86 96 76 54 66 68 43 27 26 21 20 28 21 17 33 17 16 22 40 75 75 97 97 96 97
14 12 13 13 14 19 29 47 52 52 49 23 33 63 20 39 76 85 78 100 97 95 64 58 53 62 32 24 19 22 31 26 21 18 30 29 24 33 75 72 78 88 97 96
13 12 10 9 8 9 19 54 54 43 32 15 36 62 36 57 81 70 69 66 80 70 56 57 53 84 36 22 18 20 29 27 25 22 16 33 43 49 60 76 62 69 84 96
11 10 9 8 8 17 58 69 56 56 50 57 75 52 52 67 73 72 69 60 77 75 67 54 53 59 29 23 18 16 17 16 16 14 22 14 22 46 72 75 77 76 74 64
9 8 9 12 17 43 49 90 80 87 74 64 72 67 62 78 88 66 72 85 99 72 86 94 92 41 25 24 21 14 13 12 10 10 11 23 16 13 16 18 16 26 69 91
14 9 6 6 17 31 49 80 94 86 76 75 59 63 73 85 91 100 80 100 97 93 98 98 75 41 27 27 23 19 17 14 11 11 13 12 20 21 12 11 11 11 16 62
23 24 12 24 21 40 55 75 100 100 93 81 70 69 88 96 86 98 88 88 92 86 94 98 97 76 33 29 27 22 22 17 14 11 11 13 14 18 27 20 15 13 16 18
41 28 15 48 64 39 75 98 99 91 75 79 73 69 87 96 94 98 100 92 85 82 79 95 85 83 35 32 32 28 27 23 19 15 12 12 16 17 28 28 28 23 22 21
95 78 91 68 98 96 100 100 100 100 100 85 85 99 84 89 91 98 97 98 88 83 74 94 87 85 53 35 38 36 35 29 29 20 17 13 14 15 22 33 29 31 31 30
100 100 99 85 100 92 100 100 94 94 89 86 96 93 93 99 99 94 98 98 99 80 79 65 94 96 88 77 61 45 36 34 36 29 26 21 17 17 16 19 41 49 45 43
100 100 97 85 100 100 100 100 99 100 100 70 99 100 100 100 93 94 95 99 98 94 86 69 82 97 98 98 91 76 54 56 53 38 31 39 35 22 20 22 24 30 46 55
100 100 100 96 86 94 100 100 100 100 89 98 80 100 96 74 78 96 97 93 98 98 93 91 93 100 97 96 96 86 79 79 82 77 45 43 46 46 34 24 22 27 32 38
100 100 100 100 92 78 100 100 100 100 100 100 100 99 96 79 62 84 100 100 98 98 98 98 96 94 76 86 98 96 86 87 82 69 71 61 59 60 49 48 41 37 34 30
29 99 100 98 68 90 98 100 100 90 97 90 79 97 99 100 86 74 94 83 94 99 98 96 98 98 99 90 82 92 95 97 97 91 69 67 56 69 68 46 51 54 66 73
7 15 73 86 41 46 92 96 96 82 83 70 46 35 59 87 87 87 72 70 66 75 85 86 57 71 89 87 49 54 46 52 94 96 97 82 72 80 85 87 65 76 80 81
4 4 14 67 39 34 79 98 79 76 64 34 28 31 57 28 12 27 60 66 74 89 95 91 74 48 52 68 55 33 30 29 41 41 95 100 100 86 83 94 97 78 90 86
5 4 4 14 38 66 87 92 63 69 53 44 40 17 14 9 6 4 5 8 24 18 29 44 32 50 65 46 43 33 20 24 16 29 51 84 99 100 98 99 98 98 98 95
21 16 16 60 70 80 93 29 33 60 56 35 31 24 15 22 14 9 8 6 6 16 15 8 6 10 31 31 34 27 23 16 16 6 8 29 97 98 98 98 97 98 96 86
95 32 45 76 99 96 64 68 88 82 63 55 47 30 26 26 30 29 30 28 27 26 20 13 8 8 9 9 17 20 18 15 14 17 18 8 39 78 100 97 98 99 98 98
100 79 68 80 94 83 86 93 96 96 89 87 83 64 30 17 12 10 10 12 11 9 8 9 14 12 6 5 5 5 5 5 4 4 4 6 7 46 68 85 96 99 100 99
100 100 98 98 95 91 80 80 84 82 73 77 74 48 27 15 14 15 13 12 11 11 9 8 6 4 4 3 3 3 3 3 3 4 4 4 6 8 36 60 81 100 100 98
100 100 100 100 84 64 66 79 53 55 53 72 69 52 32 32 27 23 18 17 15 14 11 9 8 7 5 6 16 6 3 3 3 4 4 7 12 13 21 42 61 68 98 96

GFSCGP_500_rhum_105.txt.gz
RH
31 32 30 31 27 22 21 20 15 14 14 30 12 9 7 12 18 22 27 54 61 59 56 47 42 51 44 28 18 15 14 14 16 30 21 12 12 25 79 76 98 88 88 85
25 25 26 26 24 23 20 16 13 11 16 23 18 8 11 14 9 7 11 46 47 46 60 49 39 59 61 35 24 17 16 15 16 32 31 14 11 19 74 93 92 98 95 93
21 20 20 20 25 24 19 15 14 19 39 33 22 19 12 15 13 14 13 30 48 55 72 58 44 56 64 36 26 17 17 14 18 26 37 17 12 23 71 81 95 96 96 97
17 17 18 17 16 22 18 21 26 30 35 34 49 24 18 16 13 10 12 25 46 71 83 65 52 60 50 34 21 18 18 14 21 18 31 20 12 21 34 69 94 97 96 97
7 11 16 16 15 26 15 42 40 44 30 31 26 25 14 16 13 23 30 36 58 71 97 86 66 76 53 32 19 20 18 16 23 21 21 26 14 18 34 66 81 97 96 97
7 11 13 12 11 12 15 45 48 47 40 18 22 28 13 16 27 26 24 28 51 60 92 81 81 82 62 33 21 22 17 17 25 24 18 29 17 17 46 63 85 98 96 97
7 12 13 13 12 10 12 16 34 38 28 14 27 28 15 15 30 32 29 40 56 55 67 76 88 86 55 24 26 23 16 17 22 23 22 19 28 26 42 63 79 91 98 97
9 12 12 13 14 12 12 14 21 23 24 27 32 16 12 34 47 48 41 51 61 59 68 91 98 94 46 26 28 23 17 14 14 11 10 18 22 29 42 55 64 91 96 96
30 15 13 12 13 13 13 20 21 55 54 51 38 21 19 45 65 60 41 51 58 64 99 94 95 97 51 24 30 22 19 13 12 9 8 9 16 17 32 47 60 66 79 91
33 22 20 21 16 13 14 26 67 60 46 44 25 26 28 47 68 64 55 59 69 78 79 79 89 59 35 28 33 24 21 15 15 12 10 10 11 17 14 17 23 35 55 69
25 18 21 21 17 17 18 30 65 80 91 54 43 36 45 65 72 81 96 66 70 74 94 81 78 58 37 48 35 29 23 20 22 21 16 12 12 12 20 17 12 11 11 22
47 19 14 19 23 21 27 31 72 68 34 41 48 41 64 68 80 68 85 92 78 62 86 91 72 72 69 75 35 32 29 27 27 23 21 15 12 13 14 23 22 14 14 12
96 45 26 37 60 33 25 26 62 72 81 65 80 74 75 93 68 63 89 99 87 95 98 91 76 68 76 79 61 34 32 34 42 32 25 21 14 14 13 22 24 25 22 17
87 96 69 49 66 77 54 35 48 68 92 93 100 92 87 91 100 93 89 99 99 100 100 79 78 89 93 94 79 40 38 34 36 32 36 32 18 16 17 18 27 24 26 24
73 89 98 86 51 92 100 89 93 95 87 88 82 80 84 100 99 87 98 98 98 100 98 98 77 80 85 100 97 95 73 41 37 37 38 35 26 20 21 21 20 31 42 41
34 97 100 100 100 91 100 100 94 97 97 91 86 89 97 97 99 95 96 94 98 99 98 98 92 86 100 100 98 97 96 95 86 43 41 38 31 29 31 30 27 24 30 45
19 94 100 100 100 100 100 100 100 100 100 100 100 100 99 100 96 90 93 88 99 97 99 98 98 98 98 100 100 98 97 97 96 97 97 96 71 33 38 42 37 36 33 33
14 48 100 100 100 98 99 96 100 100 100 100 100 100 100 98 98 91 97 94 98 99 98 98 99 98 96 93 97 97 98 98 97 98 97 97 96 96 66 53 49 42 43 51
10 11 62 94 100 99 94 94 90 91 97 93 96 98 100 100 100 100 98 95 90 86 92 96 97 98 97 98 100 100 93 95 98 100 96 99 98 96 97 95 65 53 49 59
12 9 10 36 92 97 76 51 59 80 99 98 100 100 100 82 72 90 92 94 88 89 86 92 95 96 96 72 78 75 79 79 82 80 68 67 96 97 97 96 99 95 74 59
15 8 8 6 18 42 58 46 29 70 98 100 100 100 96 79 66 66 64 38 17 41 67 80 74 72 74 75 64 57 58 62 55 57 45 36 57 96 98 98 97 95 85 84
94 20 7 5 4 9 15 15 17 66 75 90 98 86 58 54 34 33 42 10 5 5 7 15 66 66 72 76 69 49 53 59 51 48 29 27 35 50 79 96 97 99 97 98
100 59 12 5 5 13 13 25 58 92 73 56 66 63 56 54 35 19 25 31 10 9 8 7 7 18 9 8 8 6 16 53 52 33 28 30 25 16 12 25 63 95 98 98
100 41 16 13 18 34 52 75 97 92 48 69 82 73 46 33 32 32 25 31 40 39 30 26 24 24 22 19 11 10 11 12 14 21 26 26 22 18 18 14 12 29 40 68
100 100 72 43 62 75 85 99 100 100 100 100 100 100 97 83 53 39 31 22 14 11 10 11 14 16 21 25 28 29 27 20 10 7 7 7 9 8 6 5 8 11 12 19
100 100 97 96 99 100 99 100 100 100 100 100 98 87 72 65 41 22 16 13 12 10 8 8 7 6 6 6 6 5 5 4 5 6 5 4 3 3 4 4 4 5 7 9

GFSCGP_500_rhum_108.txt.gz
RH
21 34 23 34 41 41 41 40 36 35 37 35 32 17 18 20 17 20 17 20 23 28 39 43 62 66 56 50 41 34 25 19 10 11 15 22 26 15 13 23 79 98 99 98
7 13 22 29 34 36 37 36 34 31 32 35 38 16 14 14 11 15 19 24 28 26 27 38 66 76 69 57 46 36 32 20 10 12 16 23 26 17 13 18 72 94 97 85
3 7 11 21 27 28 29 31 31 33 44 43 27 18 17 17 11 12 12 13 19 20 26 26 66 71 68 67 49 39 34 17 11 13 19 20 27 16 13 28 71 82 97 97
2 5 6 10 16 23 25 26 29 31 44 28 40 22 18 15 15 17 17 19 19 13 11 13 69 63 63 70 51 40 29 16 13 14 21 19 25 15 14 22 62 63 95 97
2 2 4 7 9 20 20 25 33 40 40 31 22 21 18 22 30 44 31 19 16 11 7 10 59 68 61 71 57 44 25 17 13 18 23 23 21 20 15 20 56 77 95 97
2 2 2 5 11 16 22 22 28 37 42 26 26 27 17 19 19 33 28 22 15 10 9 21 36 55 78 77 59 58 30 15 14 23 24 25 21 24 16 17 54 84 96 97
2 2 2 4 9 15 19 21 30 33 30 17 20 28 16 19 25 26 26 23 18 11 9 20 49 51 92 89 69 70 33 17 13 20 22 22 22 22 21 15 49 72 90 96
3 2 2 2 7 12 16 18 23 22 21 17 23 17 16 18 26 22 19 13 16 14 17 28 49 58 88 82 86 74 24 17 12 14 16 13 13 19 28 28 46 67 94 96
15 3 2 2 5 11 12 14 14 22 23 19 15 13 14 18 26 21 14 13 16 26 34 47 50 55 86 82 84 51 21 17 12 11 11 11 10 17 17 30 40 61 77 95
40 13 24 4 4 10 11 11 15 24 20 20 14 14 15 18 32 20 14 25 33 34 43 50 64 66 98 77 92 44 17 19 13 11 10 11 10 10 17 16 24 47 60 72
96 44 60 49 17 11 12 10 13 17 26 21 16 16 15 20 27 20 24 27 38 42 53 67 71 95 100 100 93 42 25 18 14 11 12 12 11 12 12 19 17 12 12 19
100 87 47 58 70 52 27 15 26 24 15 18 17 13 14 17 24 30 51 54 41 42 72 88 94 98 100 95 80 42 35 21 16 14 14 15 12 11 13 14 25 21 13 12
98 94 66 57 69 78 79 60 25 23 26 27 29 15 29 35 32 35 46 49 54 54 76 98 96 96 100 90 60 72 30 24 22 20 17 15 14 11 11 12 19 28 24 18
100 99 88 77 73 88 76 56 53 39 40 19 26 26 32 41 42 51 54 63 69 87 98 92 98 98 99 98 70 93 56 27 24 22 19 18 15 14 11 10 13 22 27 26
100 100 100 100 65 77 82 63 36 32 34 41 30 35 36 53 91 71 83 100 94 89 100 98 89 96 99 100 97 96 94 38 32 28 24 21 19 17 15 12 12 18 24 26
99 64 100 100 94 78 68 68 93 39 26 25 25 24 26 40 60 93 93 97 98 98 100 97 100 98 81 93 97 95 96 84 45 34 35 34 27 23 22 17 14 13 18 26
90 87 49 100 100 93 68 71 100 95 64 75 67 77 84 81 77 91 91 99 98 96 99 99 98 98 100 92 94 96 95 99 94 73 58 42 36 31 32 25 21 17 15 15
45 57 34 79 100 100 96 98 98 100 100 100 81 77 84 99 100 90 90 100 95 92 98 99 100 99 97 98 99 96 98 97 96 94 89 92 75 69 56 40 25 22 25 23
11 20 15 40 100 100 98 100 100 100 100 100 100 100 90 88 100 100 99 98 94 85 94 95 94 98 99 96 99 97 99 98 98 96 96 95 92 98 98 98 96 70 39 33
12 10 9 13 70 99 97 93 92 100 96 100 96 96 100 100 99 100 100 100 94 98 95 96 96 96 97 100 99 98 100 89 98 96 97 97 100 94 97 99 99 96 91 53
14 12 8 9 32 87 85 94 80 71 81 100 100 100 100 99 100 97 77 61 71 81 79 73 96 94 99 97 99 100 97 98 98 95 93 95 94 77 74 66 95 97 99 96
14 27 38 7 14 38 57 52 58 50 88 93 100 100 100 89 89 75 76 74 56 62 18 8 43 49 98 99 98 97 96 93 84 77 83 82 68 60 60 51 54 81 95 96
95 100 58 16 7 12 19 22 27 33 14 48 76 98 93 85 78 64 61 29 26 28 32 12 19 9 26 72 72 76 66 71 77 76 44 45 49 51 51 37 29 34 43 46
100 100 87 35 7 6 9 10 13 91 47 100 100 94 77 76 75 64 44 58 42 24 26 34 37 34 27 20 19 18 13 10 12 13 13 25 44 41 35 31 29 29 25 19
100 100 100 51 41 21 10 25 75 100 100 100 100 78 81 96 79 71 73 61 48 38 31 33 38 35 34 36 38 36 33 28 21 20 22 24 23 14 15 20 23 21 17 19
100 100 100 100 61 45 72 96 94 93 98 100 100 100 95 100 98 87 80 65 37 24 16 12 9 8 8 8 8 9 12 15 15 18 18 16 15 16 16 12 8 7 8 7

GFSCGP_500_rhum_111.txt.gz
RH
4 6 35 25 33 41 41 40 40 44 49 49 44 37 34 35 30 30 32 29 22 19 23 20 27 34 34 53 60 60 58 45 37 28 21 13 15 23 28 23 14 17 54 91
12 38 12 11 18 26 33 34 27 40 45 50 49 36 36 32 29 27 26 26 20 17 17 22 26 34 23 50 58 75 71 59 47 38 24 14 16 20 26 21 15 15 74 91
2 7 4 4 9 15 22 25 31 36 44 48 42 28 36 34 29 28 22 20 19 14 13 14 12 22 15 46 61 80 86 66 52 40 24 14 18 19 22 21 15 18 77 81
2 2 3 4 5 6 11 19 26 30 34 35 40 23 28 30 32 29 26 16 12 10 10 11 13 16 16 44 70 76 88 67 50 41 20 14 19 22 21 22 16 16 60 74
2 2 2 2 3 3 6 14 21 27 29 32 28 27 21 26 30 31 25 19 14 11 17 18 15 16 16 55 65 76 78 59 52 49 18 14 19 24 21 24 16 18 49 87
2 3 2 2 2 2 4 8 13 21 28 25 24 28 20 25 24 26 27 24 16 17 29 35 18 17 14 58 64 73 73 67 55 53 20 15 19 24 22 24 17 15 44 79
4 3 3 2 2 2 2 6 11 16 21 16 23 26 20 25 24 26 24 23 22 23 30 22 17 14 14 39 62 73 83 70 52 56 21 13 17 18 20 22 22 19 49 67
10 6 4 2 2 2 2 5 11 11 18 20 27 20 21 23 24 26 26 22 19 17 17 16 14 13 12 39 45 82 96 90 54 56 20 11 13 11 14 20 29 33 55 76
66 14 9 6 2 2 2 3 6 14 22 26 21 19 20 22 22 22 23 20 18 18 17 16 13 14 16 32 72 94 98 96 59 56 17 10 10 10 10 19 24 34 52 72
75 78 66 16 10 3 3 2 4 12 16 19 18 17 16 16 18 21 16 14 14 15 14 11 10 18 21 28 70 100 96 88 66 44 18 9 7 10 10 15 18 29 48 52
99 81 75 70 44 7 7 3 3 11 16 15 16 15 15 20 20 19 18 17 16 14 12 18 19 31 36 53 79 98 98 72 65 31 21 8 7 10 10 12 16 15 16 24
100 100 100 62 100 98 17 12 17 8 11 12 14 15 15 18 19 20 19 15 12 11 9 20 34 40 45 64 89 99 96 79 83 37 19 10 8 10 11 12 12 17 14 13
88 74 91 94 62 100 100 82 19 12 13 13 12 12 15 19 21 17 17 19 18 15 10 17 38 56 58 73 94 100 100 92 88 42 22 15 10 10 12 14 12 14 19 14
100 100 100 100 68 77 97 100 97 46 19 12 13 12 16 18 24 23 22 26 28 24 14 23 35 57 72 90 98 97 98 97 92 56 24 18 11 10 12 14 14 13 20 22
100 100 100 100 97 80 92 94 97 100 84 43 17 17 19 22 32 38 42 30 32 36 31 26 39 62 76 83 98 99 97 97 86 64 27 24 16 13 13 13 13 12 14 22
100 100 99 100 100 88 67 66 83 79 69 55 37 21 17 21 34 49 36 67 75 79 94 92 59 73 86 90 98 97 97 97 96 94 42 27 25 22 15 14 14 13 12 15
64 95 80 92 100 100 92 78 62 64 57 36 22 20 20 37 38 53 44 42 78 95 99 99 100 93 86 99 98 96 97 96 95 98 79 34 30 28 21 16 17 16 14 13
21 65 76 29 90 94 100 88 60 64 95 83 47 50 53 61 72 76 80 60 80 91 92 89 96 98 96 99 98 96 96 96 94 97 98 96 84 42 31 24 22 20 18 18
12 28 43 18 45 100 100 100 100 100 100 98 84 76 78 79 78 83 98 100 88 89 90 81 93 96 97 96 98 99 99 95 94 94 95 95 97 95 89 61 44 50 49 48
12 12 23 20 14 92 99 100 100 89 97 100 89 80 95 79 81 100 100 92 96 100 79 77 85 95 86 94 97 100 89 98 85 95 98 98 92 92 98 97 97 100 90 80
23 11 9 13 10 23 96 100 78 100 90 100 98 100 100 100 100 100 100 92 88 86 85 78 82 89 86 97 98 97 97 98 99 99 98 99 96 100 97 95 98 98 85 82
82 64 37 8 10 7 59 100 94 94 99 100 97 100 100 100 98 98 96 84 81 76 77 83 55 75 91 89 94 96 100 100 100 99 95 91 88 82 86 98 96 82 67 60
100 100 69 20 14 9 19 67 74 93 100 100 96 84 84 98 92 85 80 69 62 70 75 59 29 26 85 51 93 98 93 94 97 98 97 97 92 91 88 90 78 69 54 54
100 100 76 48 16 8 12 28 38 61 57 40 29 30 18 57 76 73 73 83 91 86 62 39 31 27 34 25 23 59 78 55 58 70 94 96 94 91 59 49 67 55 53 52
100 100 100 60 54 78 8 12 15 15 60 64 47 35 42 67 70 73 72 63 58 54 58 62 42 38 40 38 36 34 33 47 35 28 24 23 20 18 18 17 19 23 28 22
100 100 100 98 56 71 35 18 26 30 73 87 78 90 95 82 88 95 90 82 75 70 56 50 34 25 18 19 18 17 24 28 28 34 31 32 33 32 31 28 25 22 21 21